Wetterdaten: Sonntag, 22.10.2023
Datum Zeit Temp. Aussen Temp. o. S. Temp +5cm Feuchte Auss Luftdruck Regen Sonnenschein Regendauer Solar Windben Empfang
22.10.2023 00:00 13,8 C 13,3 C 9,4 C 78 % 998,6 hPa 0,0 l/m 0 min 0 min 0 W/m 16,1 km/h (3 Bft) 95,74 %
22.10.2023 00:02 13,8 C 13,3 C 9,4 C 78 % 998,6 hPa 0,0 l/m 0 min 0 min 0 W/m 16,1 km/h (3 Bft) 97,78 %
22.10.2023 00:04 13,8 C 13,3 C 9,4 C 78 % 998,6 hPa 0,0 l/m 0 min 0 min 0 W/m 22,5 km/h (4 Bft) 100,00 %
22.10.2023 00:10 13,9 C 13,3 C 9,4 C 78 % 998,7 hPa 0,0 l/m 0 min 0 min 0 W/m 16,1 km/h (3 Bft) 97,86 %
22.10.2023 00:16 13,9 C 13,3 C 9,4 C 78 % 998,7 hPa 0,0 l/m 0 min 0 min 0 W/m 6,4 km/h (2 Bft) 100,00 %
22.10.2023 00:18 13,9 C 13,3 C 9,4 C 78 % 998,8 hPa 0,0 l/m 0 min 0 min 0 W/m 16,1 km/h (3 Bft) 100,00 %
22.10.2023 00:20 13,9 C 13,3 C 9,4 C 78 % 998,8 hPa 0,0 l/m 0 min 0 min 0 W/m 16,1 km/h (3 Bft) 100,00 %
22.10.2023 00:22 14,0 C 13,3 C 9,4 C 78 % 998,8 hPa 0,0 l/m 0 min 0 min 0 W/m 16,1 km/h (3 Bft) 100,00 %
22.10.2023 00:24 14,0 C 13,3 C 9,4 C 78 % 998,9 hPa 0,0 l/m 0 min 0 min 0 W/m 22,5 km/h (4 Bft) 97,37 %
22.10.2023 00:26 14,0 C 13,3 C 9,4 C 78 % 998,9 hPa 0,0 l/m 0 min 0 min 0 W/m 22,5 km/h (4 Bft) 100,00 %
22.10.2023 00:28 14,1 C 13,3 C 9,4 C 78 % 998,9 hPa 0,0 l/m 0 min 0 min 0 W/m 12,9 km/h (3 Bft) 100,00 %
22.10.2023 00:30 14,0 C 13,3 C 9,4 C 78 % 998,9 hPa 0,0 l/m 0 min 0 min 0 W/m 12,9 km/h (3 Bft) 100,00 %
22.10.2023 00:32 14,1 C 13,3 C 9,4 C 78 % 999,0 hPa 0,0 l/m 0 min 0 min 0 W/m 16,1 km/h (3 Bft) 97,87 %
22.10.2023 00:34 14,1 C 13,3 C 9,4 C 78 % 999,0 hPa 0,0 l/m 0 min 0 min 0 W/m 19,3 km/h (3 Bft) 97,83 %
22.10.2023 00:36 14,0 C 13,3 C 9,4 C 78 % 999,0 hPa 0,0 l/m 0 min 0 min 0 W/m 22,5 km/h (4 Bft) 97,87 %
22.10.2023 00:38 14,0 C 13,3 C 9,4 C 78 % 999,0 hPa 0,0 l/m 0 min 0 min 0 W/m 16,1 km/h (3 Bft) 93,62 %
22.10.2023 00:40 14,0 C 13,3 C 9,4 C 78 % 999,0 hPa 0,0 l/m 0 min 0 min 0 W/m 19,3 km/h (3 Bft) 95,74 %
22.10.2023 00:42 14,1 C 13,3 C 9,4 C 78 % 999,0 hPa 0,0 l/m 0 min 0 min 0 W/m 19,3 km/h (3 Bft) 95,74 %
22.10.2023 00:44 14,1 C 13,3 C 9,4 C 78 % 999,0 hPa 0,0 l/m 0 min 0 min 0 W/m 16,1 km/h (3 Bft) 95,74 %
22.10.2023 00:46 14,0 C 13,3 C 9,4 C 78 % 999,1 hPa 0,0 l/m 0 min 0 min 0 W/m 16,1 km/h (3 Bft) 93,48 %
22.10.2023 00:48 14,0 C 13,3 C 9,4 C 78 % 999,1 hPa 0,0 l/m 0 min 0 min 0 W/m 16,1 km/h (3 Bft) 95,74 %
22.10.2023 00:50 14,0 C 13,3 C 9,4 C 78 % 999,2 hPa 0,0 l/m 0 min 0 min 0 W/m 12,9 km/h (3 Bft) 95,74 %
22.10.2023 00:52 14,0 C 13,3 C 9,4 C 78 % 999,2 hPa 0,0 l/m 0 min 0 min 0 W/m 19,3 km/h (3 Bft) 93,62 %
22.10.2023 00:54 13,9 C 13,3 C 9,4 C 78 % 999,2 hPa 0,0 l/m 0 min 0 min 0 W/m 16,1 km/h (3 Bft) 95,83 %
22.10.2023 00:56 13,9 C 13,3 C 9,4 C 78 % 999,2 hPa 0,0 l/m 0 min 0 min 0 W/m 16,1 km/h (3 Bft) 95,74 %
22.10.2023 00:58 13,9 C 13,3 C 9,4 C 78 % 999,3 hPa 0,0 l/m 0 min 0 min 0 W/m 12,9 km/h (3 Bft) 95,74 %
22.10.2023 01:00 13,9 C 13,3 C 9,4 C 78 % 999,2 hPa 0,0 l/m 0 min 0 min 0 W/m 12,9 km/h (3 Bft) 93,62 %
22.10.2023 01:02 13,9 C 13,3 C 9,4 C 78 % 999,2 hPa 0,0 l/m 0 min 0 min 0 W/m 12,9 km/h (3 Bft) 91,49 %
22.10.2023 01:04 13,9 C 13,3 C 9,4 C 78 % 999,2 hPa 0,0 l/m 0 min 0 min 0 W/m 19,3 km/h (3 Bft) 95,92 %
22.10.2023 01:06 13,9 C 13,3 C 9,4 C 78 % 999,3 hPa 0,0 l/m 0 min 0 min 0 W/m 12,9 km/h (3 Bft) 93,75 %
22.10.2023 01:08 14,0 C 13,3 C 9,4 C 78 % 999,3 hPa 0,0 l/m 0 min 0 min 0 W/m 16,1 km/h (3 Bft) 95,74 %
22.10.2023 01:10 14,0 C 13,3 C 9,4 C 78 % 999,4 hPa 0,0 l/m 0 min 0 min 0 W/m 12,9 km/h (3 Bft) 95,74 %
22.10.2023 01:12 14,0 C 13,3 C 9,4 C 78 % 999,4 hPa 0,0 l/m 0 min 0 min 0 W/m 12,9 km/h (3 Bft) 95,74 %
22.10.2023 01:14 14,1 C 13,3 C 9,4 C 78 % 999,4 hPa 0,0 l/m 0 min 0 min 0 W/m 19,3 km/h (3 Bft) 95,74 %
22.10.2023 01:16 14,1 C 13,3 C 9,4 C 78 % 999,4 hPa 0,0 l/m 0 min 0 min 0 W/m 12,9 km/h (3 Bft) 95,65 %
22.10.2023 01:18 14,1 C 13,3 C 9,4 C 78 % 999,5 hPa 0,0 l/m 0 min 0 min 0 W/m 19,3 km/h (3 Bft) 95,74 %
22.10.2023 01:20 14,1 C 13,3 C 9,4 C 78 % 999,4 hPa 0,0 l/m 0 min 0 min 0 W/m 22,5 km/h (4 Bft) 97,87 %
22.10.2023 01:22 14,2 C 13,3 C 9,4 C 78 % 999,5 hPa 0,0 l/m 0 min 0 min 0 W/m 22,5 km/h (4 Bft) 97,87 %
22.10.2023 01:24 14,2 C 13,3 C 9,4 C 77 % 999,5 hPa 0,0 l/m 0 min 0 min 0 W/m 19,3 km/h (3 Bft) 95,74 %
22.10.2023 01:26 14,2 C 13,3 C 9,4 C 77 % 999,5 hPa 0,0 l/m 0 min 0 min 0 W/m 22,5 km/h (4 Bft) 100,00 %
22.10.2023 01:28 14,3 C 13,3 C 9,4 C 77 % 999,4 hPa 0,0 l/m 0 min 0 min 0 W/m 22,5 km/h (4 Bft) 97,87 %
22.10.2023 01:30 14,3 C 13,3 C 9,4 C 78 % 999,5 hPa 0,0 l/m 0 min 0 min 0 W/m 22,5 km/h (4 Bft) 95,74 %
22.10.2023 01:32 14,3 C 13,3 C 9,4 C 77 % 999,4 hPa 0,0 l/m 0 min 0 min 0 W/m 19,3 km/h (3 Bft) 97,83 %
22.10.2023 01:34 14,3 C 13,3 C 9,4 C 78 % 999,5 hPa 0,0 l/m 0 min 0 min 0 W/m 19,3 km/h (3 Bft) 95,74 %
22.10.2023 01:36 14,3 C 13,3 C 9,4 C 77 % 999,5 hPa 0,0 l/m 0 min 0 min 0 W/m 32,2 km/h (5 Bft) 100,00 %
22.10.2023 01:42 14,3 C 13,3 C 9,4 C 78 % 999,7 hPa 0,0 l/m 0 min 0 min 0 W/m 16,1 km/h (3 Bft) 100,00 %
22.10.2023 01:43 14,3 C 13,3 C 9,4 C 78 % 999,7 hPa 0,0 l/m 0 min 0 min 0 W/m 6,4 km/h (2 Bft) 100,00 %
22.10.2023 01:45 14,3 C 13,3 C 9,4 C 78 % 999,7 hPa 0,0 l/m 0 min 0 min 0 W/m 19,3 km/h (3 Bft) 92,11 %
22.10.2023 01:48 14,3 C 13,3 C 9,4 C 78 % 999,7 hPa 0,0 l/m 0 min 0 min 0 W/m 12,9 km/h (3 Bft) 97,87 %
22.10.2023 01:50 14,3 C 13,3 C 9,4 C 78 % 999,6 hPa 0,0 l/m 0 min 0 min 0 W/m 12,9 km/h (3 Bft) 95,74 %
22.10.2023 01:52 14,3 C 13,3 C 9,4 C 78 % 999,6 hPa 0,0 l/m 0 min 0 min 0 W/m 19,3 km/h (3 Bft) 93,48 %
22.10.2023 01:54 14,3 C 13,3 C 9,4 C 78 % 999,7 hPa 0,0 l/m 0 min 0 min 0 W/m 38,6 km/h (5 Bft) 97,87 %
22.10.2023 01:56 14,3 C 13,3 C 9,4 C 78 % 999,6 hPa 0,0 l/m 0 min 0 min 0 W/m 38,6 km/h (5 Bft) 95,74 %
22.10.2023 01:58 14,3 C 13,3 C 9,4 C 77 % 999,6 hPa 0,0 l/m 0 min 0 min 0 W/m 25,7 km/h (4 Bft) 97,83 %
22.10.2023 02:00 14,3 C 13,3 C 9,4 C 77 % 999,7 hPa 0,0 l/m 0 min 0 min 0 W/m 25,7 km/h (4 Bft) 97,87 %
22.10.2023 02:02 14,3 C 13,3 C 9,4 C 77 % 999,7 hPa 0,0 l/m 0 min 0 min 0 W/m 35,4 km/h (5 Bft) 95,74 %
22.10.2023 02:04 14,3 C 13,3 C 9,4 C 77 % 999,8 hPa 0,0 l/m 0 min 0 min 0 W/m 25,7 km/h (4 Bft) 100,00 %
22.10.2023 02:06 14,3 C 13,3 C 9,4 C 77 % 999,8 hPa 0,0 l/m 0 min 0 min 0 W/m 19,3 km/h (3 Bft) 100,00 %
22.10.2023 02:08 14,3 C 13,3 C 9,4 C 77 % 999,8 hPa 0,0 l/m 0 min 0 min 0 W/m 16,1 km/h (3 Bft) 97,83 %
22.10.2023 02:10 14,3 C 13,3 C 9,4 C 77 % 999,7 hPa 0,0 l/m 0 min 0 min 0 W/m 16,1 km/h (3 Bft) 97,87 %
22.10.2023 02:12 14,3 C 13,3 C 9,4 C 78 % 999,8 hPa 0,0 l/m 0 min 0 min 0 W/m 19,3 km/h (3 Bft) 100,00 %
22.10.2023 02:14 14,3 C 13,3 C 9,4 C 78 % 999,8 hPa 0,0 l/m 0 min 0 min 0 W/m 12,9 km/h (3 Bft) 96,61 %
22.10.2023 02:16 14,3 C 13,3 C 9,4 C 77 % 999,8 hPa 0,0 l/m 0 min 0 min 0 W/m 19,3 km/h (3 Bft) 100,00 %
22.10.2023 02:18 14,3 C 13,3 C 9,4 C 78 % 999,8 hPa 0,0 l/m 0 min 0 min 0 W/m 19,3 km/h (3 Bft) 97,87 %
22.10.2023 02:20 14,3 C 13,3 C 9,4 C 78 % 999,8 hPa 0,0 l/m 0 min 0 min 0 W/m 16,1 km/h (3 Bft) 97,87 %
22.10.2023 02:22 14,3 C 13,3 C 9,4 C 78 % 999,9 hPa 0,0 l/m 0 min 0 min 0 W/m 19,3 km/h (3 Bft) 98,28 %
22.10.2023 02:24 14,3 C 13,3 C 9,4 C 78 % 999,9 hPa 0,0 l/m 0 min 0 min 0 W/m 16,1 km/h (3 Bft) 100,00 %
22.10.2023 02:26 14,3 C 13,3 C 9,4 C 78 % 999,8 hPa 0,0 l/m 0 min 0 min 0 W/m 16,1 km/h (3 Bft) 97,87 %
22.10.2023 02:28 14,3 C 13,3 C 9,4 C 78 % 999,9 hPa 0,0 l/m 0 min 0 min 0 W/m 16,1 km/h (3 Bft) 96,61 %
22.10.2023 02:30 14,3 C 13,3 C 9,4 C 78 % 999,8 hPa 0,0 l/m 0 min 0 min 0 W/m 22,5 km/h (4 Bft) 100,00 %
22.10.2023 02:32 14,3 C 13,3 C 9,4 C 78 % 1000,0 hPa 0,0 l/m 0 min 0 min 0 W/m 25,7 km/h (4 Bft) 97,83 %
22.10.2023 02:34 14,3 C 13,3 C 9,4 C 78 % 1000,0 hPa 0,0 l/m 0 min 0 min 0 W/m 19,3 km/h (3 Bft) 100,00 %
22.10.2023 02:36 14,3 C 13,3 C 9,4 C 78 % 1000,0 hPa 0,0 l/m 0 min 0 min 0 W/m 22,5 km/h (4 Bft) 100,00 %
22.10.2023 02:38 14,3 C 13,3 C 9,4 C 78 % 1000,0 hPa 0,0 l/m 0 min 0 min 0 W/m 25,7 km/h (4 Bft) 100,00 %
22.10.2023 02:40 14,3 C 13,3 C 9,4 C 78 % 1000,1 hPa 0,0 l/m 0 min 0 min 0 W/m 25,7 km/h (4 Bft) 95,74 %
22.10.2023 02:42 14,3 C 13,3 C 9,4 C 78 % 1000,1 hPa 0,0 l/m 0 min 0 min 0 W/m 12,9 km/h (3 Bft) 100,00 %
22.10.2023 02:44 14,3 C 13,3 C 9,4 C 78 % 1000,1 hPa 0,0 l/m 0 min 0 min 0 W/m 12,9 km/h (3 Bft) 98,28 %
22.10.2023 02:46 14,3 C 13,3 C 9,4 C 78 % 1000,1 hPa 0,0 l/m 0 min 0 min 0 W/m 16,1 km/h (3 Bft) 100,00 %
22.10.2023 02:48 14,3 C 13,3 C 9,4 C 78 % 1000,1 hPa 0,0 l/m 0 min 0 min 0 W/m 19,3 km/h (3 Bft) 100,00 %
22.10.2023 02:50 14,2 C 13,3 C 9,4 C 78 % 1000,2 hPa 0,0 l/m 0 min 0 min 0 W/m 25,7 km/h (4 Bft) 97,87 %
22.10.2023 02:52 14,2 C 13,3 C 9,4 C 79 % 1000,2 hPa 0,0 l/m 0 min 0 min 0 W/m 19,3 km/h (3 Bft) 100,00 %
22.10.2023 02:54 14,2 C 13,3 C 9,4 C 79 % 1000,2 hPa 0,0 l/m 0 min 0 min 0 W/m 25,7 km/h (4 Bft) 100,00 %
22.10.2023 02:56 14,2 C 13,3 C 9,4 C 79 % 1000,2 hPa 0,0 l/m 0 min 0 min 0 W/m 19,3 km/h (3 Bft) 97,87 %
22.10.2023 03:00 14,2 C 13,3 C 9,4 C 79 % 1000,2 hPa 0,0 l/m 0 min 0 min 0 W/m 35,4 km/h (5 Bft) 97,25 %
22.10.2023 03:04 14,2 C 13,3 C 9,4 C 79 % 1000,2 hPa 0,0 l/m 0 min 0 min 0 W/m 19,3 km/h (3 Bft) 97,47 %
22.10.2023 03:06 14,1 C 13,3 C 9,4 C 79 % 1000,2 hPa 0,0 l/m 0 min 0 min 0 W/m 16,1 km/h (3 Bft) 98,25 %
22.10.2023 03:10 14,1 C 13,3 C 9,4 C 80 % 1000,2 hPa 0,0 l/m 0 min 0 min 0 W/m 12,9 km/h (3 Bft) 98,04 %
22.10.2023 03:12 14,1 C 13,3 C 9,4 C 80 % 1000,2 hPa 0,0 l/m 0 min 0 min 0 W/m 19,3 km/h (3 Bft) 98,63 %
22.10.2023 03:14 14,1 C 13,3 C 9,4 C 80 % 1000,3 hPa 0,0 l/m 0 min 0 min 0 W/m 12,9 km/h (3 Bft) 100,00 %
22.10.2023 03:16 14,1 C 13,3 C 9,4 C 80 % 1000,3 hPa 0,0 l/m 0 min 0 min 0 W/m 16,1 km/h (3 Bft) 100,00 %
22.10.2023 03:18 14,1 C 13,3 C 9,4 C 80 % 1000,3 hPa 0,0 l/m 0 min 0 min 0 W/m 22,5 km/h (4 Bft) 98,00 %
22.10.2023 03:20 14,0 C 13,3 C 9,4 C 80 % 1000,2 hPa 0,0 l/m 0 min 0 min 0 W/m 19,3 km/h (3 Bft) 95,74 %
22.10.2023 03:22 14,0 C 13,3 C 9,4 C 80 % 1000,2 hPa 0,0 l/m 0 min 0 min 0 W/m 22,5 km/h (4 Bft) 95,65 %
22.10.2023 03:24 14,0 C 13,3 C 9,4 C 80 % 1000,3 hPa 0,0 l/m 0 min 0 min 0 W/m 19,3 km/h (3 Bft) 95,92 %
22.10.2023 03:26 14,0 C 13,3 C 9,4 C 80 % 1000,3 hPa 0,0 l/m 0 min 0 min 0 W/m 29,0 km/h (5 Bft) 93,48 %
22.10.2023 03:28 14,0 C 13,3 C 9,4 C 81 % 1000,3 hPa 0,0 l/m 0 min 0 min 0 W/m 16,1 km/h (3 Bft) 93,62 %
22.10.2023 03:30 14,0 C 13,3 C 9,4 C 81 % 1000,4 hPa 0,0 l/m 0 min 0 min 0 W/m 25,7 km/h (4 Bft) 91,43 %
22.10.2023 03:32 14,0 C 13,3 C 9,4 C 81 % 1000,4 hPa 0,0 l/m 0 min 2 min 0 W/m 16,1 km/h (3 Bft) 94,55 %
22.10.2023 03:34 14,0 C 12,8 C 8,9 C 82 % 1000,4 hPa 0,0 l/m 0 min 0 min 0 W/m 22,5 km/h (4 Bft) 94,00 %
22.10.2023 03:36 13,9 C 12,8 C 8,9 C 82 % 1000,4 hPa 0,0 l/m 0 min 0 min 0 W/m 19,3 km/h (3 Bft) 89,36 %
22.10.2023 03:38 13,9 C 12,8 C 8,9 C 82 % 1000,4 hPa 0,0 l/m 0 min 0 min 0 W/m 16,1 km/h (3 Bft) 93,62 %
22.10.2023 03:40 13,9 C 12,8 C 8,9 C 82 % 1000,4 hPa 0,0 l/m 0 min 0 min 0 W/m 22,5 km/h (4 Bft) 93,62 %
22.10.2023 03:42 13,9 C 12,8 C 8,9 C 82 % 1000,4 hPa 0,0 l/m 0 min 0 min 0 W/m 19,3 km/h (3 Bft) 91,49 %
22.10.2023 03:44 13,8 C 12,8 C 8,9 C 82 % 1000,5 hPa 0,0 l/m 0 min 0 min 0 W/m 29,0 km/h (5 Bft) 93,62 %
22.10.2023 03:46 13,8 C 12,8 C 9,4 C 82 % 1000,5 hPa 0,0 l/m 0 min 0 min 0 W/m 32,2 km/h (5 Bft) 90,48 %
22.10.2023 03:48 13,8 C 12,8 C 9,4 C 82 % 1000,4 hPa 0,0 l/m 0 min 0 min 0 W/m 16,1 km/h (3 Bft) 92,00 %
22.10.2023 03:50 13,8 C 12,8 C 9,4 C 82 % 1000,4 hPa 0,0 l/m 0 min 0 min 0 W/m 12,9 km/h (3 Bft) 89,80 %
22.10.2023 03:52 13,8 C 12,8 C 9,4 C 83 % 1000,5 hPa 0,0 l/m 0 min 0 min 0 W/m 12,9 km/h (3 Bft) 93,75 %
22.10.2023 03:56 13,8 C 12,8 C 9,4 C 83 % 1000,4 hPa 0,0 l/m 0 min 0 min 0 W/m 22,5 km/h (4 Bft) 90,80 %
22.10.2023 03:58 13,7 C 12,8 C 9,4 C 83 % 1000,5 hPa 0,0 l/m 0 min 0 min 0 W/m 19,3 km/h (3 Bft) 95,24 %
22.10.2023 04:00 13,7 C 12,8 C 9,4 C 83 % 1000,6 hPa 0,0 l/m 0 min 0 min 0 W/m 19,3 km/h (3 Bft) 96,08 %
22.10.2023 04:02 13,7 C 12,8 C 9,4 C 83 % 1000,5 hPa 0,0 l/m 0 min 0 min 0 W/m 25,7 km/h (4 Bft) 95,92 %
22.10.2023 04:04 13,7 C 12,8 C 9,4 C 83 % 1000,6 hPa 0,0 l/m 0 min 0 min 0 W/m 22,5 km/h (4 Bft) 95,83 %
22.10.2023 04:08 13,7 C 12,8 C 9,4 C 83 % 1000,6 hPa 0,0 l/m 0 min 0 min 0 W/m 19,3 km/h (3 Bft) 97,73 %
22.10.2023 04:10 13,7 C 12,8 C 8,9 C 83 % 1000,7 hPa 0,0 l/m 0 min 0 min 0 W/m 19,3 km/h (3 Bft) 100,00 %
22.10.2023 04:16 13,6 C 12,8 C 8,9 C 83 % 1000,7 hPa 0,0 l/m 0 min 0 min 0 W/m 16,1 km/h (3 Bft) 100,00 %
22.10.2023 04:18 13,6 C 12,8 C 8,9 C 83 % 1000,7 hPa 0,0 l/m 0 min 0 min 0 W/m 16,1 km/h (3 Bft) 97,87 %
22.10.2023 04:20 13,6 C 12,8 C 8,9 C 83 % 1000,7 hPa 0,0 l/m 0 min 0 min 0 W/m 16,1 km/h (3 Bft) 98,15 %
22.10.2023 04:22 13,6 C 12,8 C 8,9 C 83 % 1000,7 hPa 0,0 l/m 0 min 0 min 0 W/m 16,1 km/h (3 Bft) 100,00 %
22.10.2023 04:24 13,6 C 12,8 C 8,9 C 83 % 1000,8 hPa 0,0 l/m 0 min 0 min 0 W/m 19,3 km/h (3 Bft) 100,00 %
22.10.2023 04:26 13,5 C 12,8 C 8,9 C 83 % 1000,8 hPa 0,0 l/m 0 min 0 min 0 W/m 22,5 km/h (4 Bft) 100,00 %
22.10.2023 04:28 13,5 C 12,8 C 8,9 C 83 % 1000,8 hPa 0,0 l/m 0 min 0 min 0 W/m 12,9 km/h (3 Bft) 100,00 %
22.10.2023 04:30 13,5 C 12,8 C 8,9 C 83 % 1000,9 hPa 0,0 l/m 0 min 0 min 0 W/m 19,3 km/h (3 Bft) 95,74 %
22.10.2023 04:32 13,5 C 12,8 C 8,9 C 83 % 1000,8 hPa 0,0 l/m 0 min 0 min 0 W/m 32,2 km/h (5 Bft) 100,00 %
22.10.2023 04:34 13,5 C 12,8 C 8,9 C 84 % 1000,8 hPa 0,0 l/m 0 min 0 min 0 W/m 16,1 km/h (3 Bft) 97,67 %
22.10.2023 04:38 13,5 C 12,8 C 8,9 C 84 % 1000,9 hPa 0,0 l/m 0 min 0 min 0 W/m 16,1 km/h (3 Bft) 98,92 %
22.10.2023 04:40 13,5 C 12,8 C 8,9 C 84 % 1000,9 hPa 0,0 l/m 0 min 0 min 0 W/m 25,7 km/h (4 Bft) 100,00 %
22.10.2023 04:42 13,5 C 12,8 C 8,9 C 84 % 1001,0 hPa 0,0 l/m 0 min 0 min 0 W/m 16,1 km/h (3 Bft) 100,00 %
22.10.2023 04:44 13,5 C 12,8 C 8,9 C 84 % 1001,0 hPa 0,0 l/m 0 min 0 min 0 W/m 19,3 km/h (3 Bft) 100,00 %
22.10.2023 04:46 13,5 C 12,8 C 8,9 C 84 % 1001,2 hPa 0,0 l/m 0 min 0 min 0 W/m 16,1 km/h (3 Bft) 97,87 %
22.10.2023 04:48 13,4 C 12,8 C 8,9 C 84 % 1001,1 hPa 0,0 l/m 0 min 0 min 0 W/m 19,3 km/h (3 Bft) 100,00 %
22.10.2023 04:50 13,4 C 12,8 C 8,9 C 84 % 1001,2 hPa 0,0 l/m 0 min 0 min 0 W/m 12,9 km/h (3 Bft) 97,30 %
22.10.2023 04:52 13,4 C 12,8 C 8,9 C 84 % 1001,2 hPa 0,0 l/m 0 min 0 min 0 W/m 19,3 km/h (3 Bft) 100,00 %
22.10.2023 04:54 13,4 C 12,8 C 8,9 C 85 % 1001,2 hPa 0,0 l/m 0 min 0 min 0 W/m 16,1 km/h (3 Bft) 100,00 %
22.10.2023 04:56 13,4 C 12,2 C 8,9 C 85 % 1001,3 hPa 0,0 l/m 0 min 0 min 0 W/m 16,1 km/h (3 Bft) 100,00 %
22.10.2023 04:58 13,4 C 12,2 C 8,9 C 85 % 1001,4 hPa 0,0 l/m 0 min 0 min 0 W/m 19,3 km/h (3 Bft) 100,00 %
22.10.2023 05:00 13,3 C 12,2 C 8,9 C 85 % 1001,4 hPa 0,0 l/m 0 min 0 min 0 W/m 22,5 km/h (4 Bft) 100,00 %
22.10.2023 05:02 13,3 C 12,2 C 8,9 C 85 % 1001,4 hPa 0,0 l/m 0 min 0 min 0 W/m 22,5 km/h (4 Bft) 97,87 %
22.10.2023 05:04 13,3 C 12,2 C 8,9 C 86 % 1001,4 hPa 0,0 l/m 0 min 0 min 0 W/m 35,4 km/h (5 Bft) 100,00 %
22.10.2023 05:06 13,3 C 12,2 C 8,9 C 86 % 1001,4 hPa 0,0 l/m 0 min 0 min 0 W/m 19,3 km/h (3 Bft) 100,00 %
22.10.2023 05:08 13,3 C 12,2 C 8,9 C 86 % 1001,5 hPa 0,0 l/m 0 min 0 min 0 W/m 16,1 km/h (3 Bft) 100,00 %
22.10.2023 05:10 13,2 C 12,2 C 8,9 C 86 % 1001,4 hPa 0,0 l/m 0 min 0 min 0 W/m 19,3 km/h (3 Bft) 97,92 %
22.10.2023 05:12 13,2 C 12,2 C 8,9 C 86 % 1001,4 hPa 0,0 l/m 0 min 0 min 0 W/m 19,3 km/h (3 Bft) 100,00 %
22.10.2023 05:14 13,2 C 12,2 C 8,9 C 87 % 1001,5 hPa 0,0 l/m 0 min 0 min 0 W/m 19,3 km/h (3 Bft) 100,00 %
22.10.2023 05:16 13,2 C 12,2 C 8,9 C 87 % 1001,5 hPa 0,0 l/m 0 min 0 min 0 W/m 16,1 km/h (3 Bft) 97,92 %
22.10.2023 05:18 13,1 C 12,2 C 8,9 C 87 % 1001,5 hPa 0,0 l/m 0 min 0 min 0 W/m 12,9 km/h (3 Bft) 100,00 %
22.10.2023 05:20 13,1 C 12,2 C 8,9 C 87 % 1001,6 hPa 0,0 l/m 0 min 0 min 0 W/m 12,9 km/h (3 Bft) 97,87 %
22.10.2023 05:22 13,1 C 12,2 C 8,9 C 87 % 1001,6 hPa 0,0 l/m 0 min 0 min 0 W/m 16,1 km/h (3 Bft) 97,87 %
22.10.2023 05:24 13,1 C 12,2 C 8,9 C 87 % 1001,6 hPa 0,0 l/m 0 min 2 min 0 W/m 19,3 km/h (3 Bft) 98,00 %
22.10.2023 05:26 13,1 C 12,2 C 8,3 C 88 % 1001,7 hPa 0,0 l/m 0 min 2 min 0 W/m 16,1 km/h (3 Bft) 97,30 %
22.10.2023 05:28 13,1 C 12,2 C 8,3 C 88 % 1001,7 hPa 0,0 l/m 0 min 2 min 0 W/m 12,9 km/h (3 Bft) 97,96 %
22.10.2023 05:30 13,1 C 12,2 C 8,3 C 88 % 1001,7 hPa 0,0 l/m 0 min 2 min 0 W/m 22,5 km/h (4 Bft) 95,83 %
22.10.2023 05:32 13,0 C 12,2 C 8,3 C 88 % 1001,7 hPa 0,0 l/m 0 min 2 min 0 W/m 25,7 km/h (4 Bft) 97,87 %
22.10.2023 05:34 13,0 C 12,2 C 8,3 C 89 % 1001,7 hPa 0,0 l/m 0 min 0 min 0 W/m 16,1 km/h (3 Bft) 97,87 %
22.10.2023 05:36 13,0 C 12,2 C 8,3 C 89 % 1001,8 hPa 0,0 l/m 0 min 2 min 0 W/m 35,4 km/h (5 Bft) 97,87 %
22.10.2023 05:38 12,9 C 12,2 C 8,3 C 89 % 1001,9 hPa 0,0 l/m 0 min 0 min 0 W/m 19,3 km/h (3 Bft) 97,92 %
22.10.2023 05:40 12,9 C 12,2 C 8,3 C 89 % 1001,9 hPa 0,0 l/m 0 min 2 min 0 W/m 19,3 km/h (3 Bft) 96,00 %
22.10.2023 05:42 12,9 C 12,2 C 8,3 C 89 % 1001,9 hPa 0,0 l/m 0 min 0 min 0 W/m 12,9 km/h (3 Bft) 97,92 %
22.10.2023 05:44 12,9 C 12,2 C 8,3 C 89 % 1002,0 hPa 0,0 l/m 0 min 0 min 0 W/m 22,5 km/h (4 Bft) 97,87 %
22.10.2023 05:46 12,9 C 12,2 C 8,3 C 89 % 1002,0 hPa 0,0 l/m 0 min 0 min 0 W/m 19,3 km/h (3 Bft) 92,31 %
22.10.2023 05:48 12,8 C 12,2 C 8,3 C 89 % 1002,0 hPa 0,0 l/m 0 min 0 min 0 W/m 25,7 km/h (4 Bft) 94,12 %
22.10.2023 05:50 12,8 C 12,2 C 8,3 C 89 % 1002,0 hPa 0,0 l/m 0 min 0 min 0 W/m 25,7 km/h (4 Bft) 97,56 %
22.10.2023 05:52 12,8 C 12,2 C 8,3 C 89 % 1002,0 hPa 0,0 l/m 0 min 0 min 0 W/m 19,3 km/h (3 Bft) 100,00 %
22.10.2023 05:54 12,8 C 12,2 C 8,3 C 90 % 1002,0 hPa 0,0 l/m 0 min 0 min 0 W/m 12,9 km/h (3 Bft) 100,00 %
22.10.2023 05:56 12,8 C 12,2 C 8,3 C 90 % 1002,0 hPa 0,0 l/m 0 min 0 min 0 W/m 16,1 km/h (3 Bft) 97,87 %
22.10.2023 05:58 12,8 C 12,2 C 8,3 C 90 % 1002,0 hPa 0,0 l/m 0 min 0 min 0 W/m 16,1 km/h (3 Bft) 97,87 %
22.10.2023 06:00 12,8 C 12,2 C 8,3 C 90 % 1002,1 hPa 0,0 l/m 0 min 0 min 0 W/m 29,0 km/h (5 Bft) 100,00 %
22.10.2023 06:02 12,8 C 12,2 C 8,3 C 90 % 1002,1 hPa 0,0 l/m 0 min 0 min 0 W/m 25,7 km/h (4 Bft) 97,87 %
22.10.2023 06:04 12,8 C 12,2 C 8,3 C 90 % 1002,2 hPa 0,0 l/m 0 min 0 min 0 W/m 16,1 km/h (3 Bft) 95,83 %
22.10.2023 06:10 12,8 C 12,2 C 8,3 C 90 % 1002,3 hPa 0,0 l/m 0 min 0 min 0 W/m 35,4 km/h (5 Bft) 96,43 %
22.10.2023 06:12 12,8 C 12,2 C 8,3 C 90 % 1002,3 hPa 0,0 l/m 0 min 0 min 0 W/m 29,0 km/h (5 Bft) 95,74 %
22.10.2023 06:16 12,8 C 12,2 C 8,9 C 90 % 1002,4 hPa 0,0 l/m 0 min 0 min 0 W/m 38,6 km/h (5 Bft) 97,87 %
22.10.2023 06:18 12,8 C 12,2 C 8,9 C 90 % 1002,4 hPa 0,0 l/m 0 min 0 min 0 W/m 41,8 km/h (6 Bft) 97,87 %
22.10.2023 06:20 12,8 C 12,2 C 8,9 C 90 % 1002,4 hPa 0,0 l/m 0 min 0 min 0 W/m 19,3 km/h (3 Bft) 95,74 %
22.10.2023 06:22 12,8 C 12,2 C 8,9 C 90 % 1002,5 hPa 0,0 l/m 0 min 0 min 0 W/m 32,2 km/h (5 Bft) 96,00 %
22.10.2023 06:24 12,8 C 12,2 C 8,9 C 90 % 1002,5 hPa 0,0 l/m 0 min 0 min 0 W/m 29,0 km/h (5 Bft) 95,74 %
22.10.2023 06:26 12,9 C 12,2 C 8,9 C 90 % 1002,4 hPa 0,0 l/m 0 min 0 min 0 W/m 12,9 km/h (3 Bft) 95,74 %
22.10.2023 06:28 12,9 C 12,2 C 8,9 C 90 % 1002,5 hPa 0,0 l/m 0 min 0 min 0 W/m 16,1 km/h (3 Bft) 93,75 %
22.10.2023 06:30 12,9 C 12,2 C 8,9 C 90 % 1002,5 hPa 0,0 l/m 0 min 0 min 0 W/m 22,5 km/h (4 Bft) 94,87 %
22.10.2023 06:36 12,9 C 12,2 C 8,9 C 90 % 1002,6 hPa 0,0 l/m 0 min 0 min 0 W/m 29,0 km/h (5 Bft) 95,24 %
22.10.2023 06:38 12,9 C 12,2 C 8,9 C 90 % 1002,6 hPa 0,0 l/m 0 min 0 min 0 W/m 22,5 km/h (4 Bft) 93,75 %
22.10.2023 06:40 12,9 C 12,2 C 8,9 C 90 % 1002,7 hPa 0,0 l/m 0 min 0 min 0 W/m 25,7 km/h (4 Bft) 95,74 %
22.10.2023 06:42 12,9 C 12,2 C 8,9 C 90 % 1002,8 hPa 0,0 l/m 0 min 0 min 0 W/m 29,0 km/h (5 Bft) 95,65 %
22.10.2023 06:44 12,9 C 12,2 C 8,9 C 90 % 1002,9 hPa 0,0 l/m 0 min 0 min 0 W/m 29,0 km/h (5 Bft) 95,24 %
22.10.2023 06:46 12,9 C 12,2 C 8,9 C 90 % 1002,8 hPa 0,0 l/m 0 min 0 min 0 W/m 38,6 km/h (5 Bft) 97,87 %
22.10.2023 06:48 12,9 C 12,2 C 8,9 C 90 % 1002,9 hPa 0,0 l/m 0 min 0 min 0 W/m 29,0 km/h (5 Bft) 97,87 %
22.10.2023 06:50 12,9 C 12,2 C 8,9 C 90 % 1003,0 hPa 0,0 l/m 0 min 0 min 0 W/m 32,2 km/h (5 Bft) 95,74 %
22.10.2023 06:52 12,9 C 12,2 C 8,9 C 90 % 1002,9 hPa 0,0 l/m 0 min 0 min 0 W/m 16,1 km/h (3 Bft) 97,83 %
22.10.2023 06:54 12,9 C 12,2 C 8,9 C 90 % 1003,0 hPa 0,0 l/m 0 min 0 min 0 W/m 19,3 km/h (3 Bft) 97,92 %
22.10.2023 06:56 12,9 C 12,2 C 8,9 C 90 % 1003,0 hPa 0,0 l/m 0 min 0 min 0 W/m 16,1 km/h (3 Bft) 97,87 %
22.10.2023 06:58 12,8 C 12,2 C 8,9 C 90 % 1003,0 hPa 0,0 l/m 0 min 0 min 0 W/m 22,5 km/h (4 Bft) 98,00 %
22.10.2023 07:00 12,8 C 12,2 C 8,9 C 90 % 1003,1 hPa 0,0 l/m 0 min 0 min 0 W/m 25,7 km/h (4 Bft) 97,87 %
22.10.2023 07:02 12,8 C 12,2 C 8,9 C 90 % 1003,1 hPa 0,0 l/m 0 min 0 min 0 W/m 22,5 km/h (4 Bft) 95,74 %
22.10.2023 07:04 12,8 C 12,2 C 8,3 C 90 % 1003,2 hPa 0,0 l/m 0 min 0 min 0 W/m 22,5 km/h (4 Bft) 95,35 %
22.10.2023 07:08 12,7 C 12,2 C 8,3 C 90 % 1003,3 hPa 0,0 l/m 0 min 0 min 0 W/m 22,5 km/h (4 Bft) 97,03 %
22.10.2023 07:09 12,7 C 12,2 C 8,3 C 90 % 1003,3 hPa 0,0 l/m 0 min 0 min 0 W/m 19,3 km/h (3 Bft) 100,00 %
22.10.2023 07:10 12,7 C 12,2 C 8,3 C 90 % 1003,3 hPa 0,0 l/m 0 min 0 min 0 W/m 29,0 km/h (5 Bft) 100,00 %
22.10.2023 07:14 12,7 C 12,2 C 8,3 C 89 % 1003,3 hPa 0,0 l/m 0 min 0 min 0 W/m 19,3 km/h (3 Bft) 97,87 %
22.10.2023 07:16 12,6 C 12,2 C 8,3 C 89 % 1003,4 hPa 0,0 l/m 0 min 0 min 0 W/m 19,3 km/h (3 Bft) 97,87 %
22.10.2023 07:18 12,6 C 12,2 C 8,3 C 89 % 1003,4 hPa 0,0 l/m 0 min 0 min 0 W/m 16,1 km/h (3 Bft) 97,87 %
22.10.2023 07:20 12,6 C 12,2 C 8,3 C 88 % 1003,4 hPa 0,0 l/m 0 min 0 min 0 W/m 22,5 km/h (4 Bft) 95,74 %
22.10.2023 07:22 12,6 C 12,2 C 8,3 C 88 % 1003,5 hPa 0,0 l/m 0 min 0 min 0 W/m 22,5 km/h (4 Bft) 97,83 %
22.10.2023 07:24 12,6 C 12,2 C 8,3 C 87 % 1003,6 hPa 0,0 l/m 0 min 0 min 0 W/m 19,3 km/h (3 Bft) 97,87 %
22.10.2023 07:26 12,6 C 12,2 C 8,3 C 87 % 1003,6 hPa 0,0 l/m 0 min 0 min 0 W/m 19,3 km/h (3 Bft) 97,87 %
22.10.2023 07:28 12,6 C 12,2 C 8,3 C 86 % 1003,6 hPa 0,0 l/m 0 min 0 min 0 W/m 22,5 km/h (4 Bft) 97,87 %
22.10.2023 07:30 12,6 C 11,7 C 8,3 C 86 % 1003,6 hPa 0,0 l/m 0 min 0 min 0 W/m 12,9 km/h (3 Bft) 97,87 %
22.10.2023 07:32 12,6 C 11,7 C 8,3 C 86 % 1003,8 hPa 0,0 l/m 0 min 0 min 0 W/m 22,5 km/h (4 Bft) 93,62 %
22.10.2023 07:34 12,6 C 11,7 C 8,3 C 86 % 1003,8 hPa 0,0 l/m 0 min 0 min 0 W/m 12,9 km/h (3 Bft) 97,87 %
22.10.2023 07:36 12,5 C 11,7 C 8,3 C 86 % 1003,8 hPa 0,0 l/m 0 min 2 min 0 W/m 19,3 km/h (3 Bft) 97,87 %
22.10.2023 07:38 12,5 C 11,7 C 8,3 C 86 % 1003,8 hPa 0,0 l/m 0 min 2 min 0 W/m 16,1 km/h (3 Bft) 97,87 %
22.10.2023 07:40 12,5 C 11,7 C 8,3 C 86 % 1003,9 hPa 0,0 l/m 0 min 0 min 0 W/m 16,1 km/h (3 Bft) 97,83 %
22.10.2023 07:42 12,5 C 11,7 C 8,3 C 86 % 1003,9 hPa 0,0 l/m 0 min 0 min 0 W/m 19,3 km/h (3 Bft) 97,87 %
22.10.2023 07:44 12,4 C 11,7 C 8,3 C 86 % 1003,9 hPa 0,0 l/m 0 min 0 min 0 W/m 16,1 km/h (3 Bft) 95,74 %
22.10.2023 07:46 12,4 C 11,7 C 8,3 C 86 % 1003,9 hPa 0,0 l/m 0 min 0 min 0 W/m 12,9 km/h (3 Bft) 100,00 %
22.10.2023 07:48 12,4 C 11,7 C 8,3 C 86 % 1003,9 hPa 0,0 l/m 0 min 0 min 0 W/m 16,1 km/h (3 Bft) 100,00 %
22.10.2023 07:50 12,4 C 11,7 C 8,3 C 86 % 1004,0 hPa 0,0 l/m 0 min 0 min 0 W/m 22,5 km/h (4 Bft) 100,00 %
22.10.2023 07:52 12,4 C 11,7 C 8,3 C 85 % 1004,0 hPa 0,0 l/m 0 min 0 min 0 W/m 12,9 km/h (3 Bft) 100,00 %
22.10.2023 07:54 12,3 C 11,7 C 8,3 C 85 % 1004,1 hPa 0,0 l/m 0 min 0 min 0 W/m 6,4 km/h (2 Bft) 97,83 %
22.10.2023 07:56 12,3 C 11,7 C 8,3 C 85 % 1004,1 hPa 0,0 l/m 0 min 0 min 0 W/m 25,7 km/h (4 Bft) 100,00 %
22.10.2023 07:58 12,3 C 11,7 C 8,3 C 85 % 1004,1 hPa 0,0 l/m 0 min 0 min 0 W/m 12,9 km/h (3 Bft) 97,56 %
22.10.2023 08:00 12,3 C 11,7 C 8,3 C 85 % 1004,1 hPa 0,0 l/m 0 min 0 min 0 W/m 16,1 km/h (3 Bft) 100,00 %
22.10.2023 08:02 12,3 C 11,7 C 8,3 C 85 % 1004,1 hPa 0,0 l/m 0 min 0 min 0 W/m 12,9 km/h (3 Bft) 97,87 %
22.10.2023 08:04 12,3 C 11,7 C 8,3 C 85 % 1004,2 hPa 0,0 l/m 0 min 0 min 0 W/m 19,3 km/h (3 Bft) 100,00 %
22.10.2023 08:06 12,3 C 11,7 C 8,3 C 85 % 1004,2 hPa 0,0 l/m 0 min 0 min 0 W/m 16,1 km/h (3 Bft) 100,00 %
22.10.2023 08:08 12,3 C 11,7 C 8,3 C 84 % 1004,2 hPa 0,0 l/m 0 min 0 min 0 W/m 19,3 km/h (3 Bft) 100,00 %
22.10.2023 08:10 12,3 C 11,7 C 8,3 C 84 % 1004,3 hPa 0,0 l/m 0 min 0 min 0 W/m 16,1 km/h (3 Bft) 100,00 %
22.10.2023 08:12 12,3 C 11,7 C 8,3 C 84 % 1004,3 hPa 0,0 l/m 0 min 0 min 0 W/m 9,7 km/h (2 Bft) 97,87 %
22.10.2023 08:14 12,3 C 11,7 C 8,3 C 84 % 1004,4 hPa 0,0 l/m 0 min 0 min 0 W/m 19,3 km/h (3 Bft) 100,00 %
22.10.2023 08:15 12,3 C 11,7 C 8,3 C 84 % 1004,4 hPa 0,0 l/m 0 min 0 min 0 W/m 19,3 km/h (3 Bft) 100,00 %
22.10.2023 08:18 12,2 C 11,7 C 8,3 C 84 % 1004,3 hPa 0,0 l/m 0 min 0 min 0 W/m 19,3 km/h (3 Bft) 100,00 %
22.10.2023 08:20 12,3 C 11,7 C 8,3 C 84 % 1004,4 hPa 0,0 l/m 0 min 0 min 0 W/m 12,9 km/h (3 Bft) 100,00 %
22.10.2023 08:22 12,2 C 11,7 C 8,3 C 85 % 1004,5 hPa 0,0 l/m 0 min 0 min 0 W/m 25,7 km/h (4 Bft) 100,00 %
22.10.2023 08:24 12,2 C 11,7 C 7,8 C 85 % 1004,5 hPa 0,0 l/m 0 min 0 min 2 W/m 6,4 km/h (2 Bft) 100,00 %
22.10.2023 08:26 12,2 C 11,7 C 7,8 C 85 % 1004,5 hPa 0,0 l/m 0 min 0 min 5 W/m 19,3 km/h (3 Bft) 100,00 %
22.10.2023 08:28 12,2 C 11,7 C 7,8 C 85 % 1004,6 hPa 0,0 l/m 0 min 0 min 5 W/m 16,1 km/h (3 Bft) 98,11 %
22.10.2023 08:30 12,2 C 11,7 C 7,8 C 85 % 1004,6 hPa 0,0 l/m 0 min 0 min 5 W/m 19,3 km/h (3 Bft) 100,00 %
22.10.2023 08:34 12,2 C 11,7 C 7,8 C 85 % 1004,7 hPa 0,0 l/m 0 min 0 min 7 W/m 19,3 km/h (3 Bft) 98,00 %
22.10.2023 08:36 12,2 C 11,7 C 7,8 C 85 % 1004,7 hPa 0,0 l/m 0 min 0 min 7 W/m 16,1 km/h (3 Bft) 100,00 %
22.10.2023 08:38 12,2 C 11,7 C 7,8 C 85 % 1004,7 hPa 0,0 l/m 0 min 0 min 8 W/m 12,9 km/h (3 Bft) 97,87 %
22.10.2023 08:40 12,2 C 11,7 C 7,8 C 85 % 1004,7 hPa 0,0 l/m 0 min 0 min 9 W/m 16,1 km/h (3 Bft) 97,87 %
22.10.2023 08:42 12,1 C 11,7 C 7,8 C 85 % 1004,8 hPa 0,0 l/m 0 min 0 min 12 W/m 6,4 km/h (2 Bft) 95,74 %
22.10.2023 08:44 12,1 C 11,7 C 7,8 C 85 % 1004,8 hPa 0,0 l/m 0 min 0 min 12 W/m 19,3 km/h (3 Bft) 100,00 %
22.10.2023 08:46 12,1 C 11,7 C 7,8 C 85 % 1004,8 hPa 0,0 l/m 0 min 0 min 12 W/m 12,9 km/h (3 Bft) 100,00 %
22.10.2023 08:48 12,1 C 11,7 C 7,8 C 85 % 1004,9 hPa 0,0 l/m 0 min 0 min 12 W/m 9,7 km/h (2 Bft) 97,87 %
22.10.2023 08:50 12,1 C 11,7 C 7,8 C 85 % 1004,9 hPa 0,0 l/m 0 min 0 min 13 W/m 12,9 km/h (3 Bft) 97,87 %
22.10.2023 08:52 12,1 C 11,7 C 7,8 C 85 % 1005,0 hPa 0,0 l/m 0 min 0 min 16 W/m 16,1 km/h (3 Bft) 97,87 %
22.10.2023 08:54 12,1 C 11,7 C 7,8 C 85 % 1005,0 hPa 0,0 l/m 0 min 0 min 16 W/m 6,4 km/h (2 Bft) 96,49 %
22.10.2023 08:56 12,1 C 11,7 C 7,8 C 86 % 1005,0 hPa 0,0 l/m 0 min 0 min 21 W/m 6,4 km/h (2 Bft) 95,65 %
22.10.2023 08:58 12,1 C 11,7 C 7,8 C 86 % 1005,0 hPa 0,0 l/m 0 min 0 min 27 W/m 6,4 km/h (2 Bft) 95,74 %
22.10.2023 09:00 12,1 C 11,7 C 7,8 C 86 % 1005,1 hPa 0,0 l/m 0 min 0 min 34 W/m 3,2 km/h (1 Bft) 97,87 %
22.10.2023 09:02 12,1 C 11,7 C 7,8 C 86 % 1005,1 hPa 0,0 l/m 0 min 0 min 40 W/m 19,3 km/h (3 Bft) 97,30 %
22.10.2023 09:04 12,1 C 11,7 C 7,8 C 86 % 1005,2 hPa 0,0 l/m 0 min 0 min 44 W/m 9,7 km/h (2 Bft) 98,00 %
22.10.2023 09:08 12,1 C 11,7 C 7,8 C 86 % 1005,2 hPa 0,0 l/m 0 min 0 min 45 W/m 12,9 km/h (3 Bft) 96,00 %
22.10.2023 09:09 12,1 C 11,7 C 7,8 C 86 % 1005,2 hPa 0,0 l/m 0 min 0 min 42 W/m 6,4 km/h (2 Bft) 95,65 %
22.10.2023 09:10 12,1 C 11,7 C 7,8 C 86 % 1005,2 hPa 0,0 l/m 0 min 0 min 43 W/m 12,9 km/h (3 Bft) 98,25 %
22.10.2023 09:14 12,1 C 11,7 C 8,3 C 86 % 1005,4 hPa 0,0 l/m 0 min 0 min 37 W/m 12,9 km/h (3 Bft) 93,48 %
22.10.2023 09:16 12,1 C 11,7 C 8,3 C 86 % 1005,4 hPa 0,0 l/m 0 min 0 min 34 W/m 16,1 km/h (3 Bft) 93,62 %
22.10.2023 09:18 12,1 C 11,7 C 8,3 C 86 % 1005,4 hPa 0,0 l/m 0 min 0 min 32 W/m 12,9 km/h (3 Bft) 91,49 %
22.10.2023 09:20 12,1 C 11,7 C 8,3 C 86 % 1005,4 hPa 0,0 l/m 0 min 0 min 30 W/m 12,9 km/h (3 Bft) 93,62 %
22.10.2023 09:22 12,1 C 11,7 C 8,3 C 86 % 1005,5 hPa 0,0 l/m 0 min 0 min 30 W/m 16,1 km/h (3 Bft) 91,49 %
22.10.2023 09:24 12,1 C 11,7 C 8,3 C 86 % 1005,5 hPa 0,0 l/m 0 min 0 min 28 W/m 16,1 km/h (3 Bft) 93,62 %
22.10.2023 09:26 12,1 C 11,7 C 8,3 C 86 % 1005,5 hPa 0,0 l/m 0 min 0 min 32 W/m 9,7 km/h (2 Bft) 91,49 %
22.10.2023 09:28 12,1 C 11,7 C 8,3 C 86 % 1005,5 hPa 0,0 l/m 0 min 0 min 32 W/m 12,9 km/h (3 Bft) 91,30 %
22.10.2023 09:30 12,1 C 11,7 C 8,3 C 86 % 1005,6 hPa 0,0 l/m 0 min 0 min 30 W/m 16,1 km/h (3 Bft) 93,62 %
22.10.2023 09:32 12,1 C 11,7 C 8,3 C 86 % 1005,6 hPa 0,0 l/m 0 min 0 min 32 W/m 16,1 km/h (3 Bft) 93,62 %
22.10.2023 09:34 12,1 C 11,7 C 8,3 C 86 % 1005,6 hPa 0,0 l/m 0 min 0 min 38 W/m 9,7 km/h (2 Bft) 95,74 %
22.10.2023 09:36 12,1 C 11,7 C 8,3 C 86 % 1005,6 hPa 0,0 l/m 0 min 0 min 45 W/m 12,9 km/h (3 Bft) 95,74 %
22.10.2023 09:38 12,1 C 11,7 C 8,3 C 86 % 1005,8 hPa 0,0 l/m 0 min 0 min 46 W/m 12,9 km/h (3 Bft) 95,74 %
22.10.2023 09:40 12,2 C 11,7 C 8,3 C 86 % 1005,8 hPa 0,0 l/m 0 min 0 min 47 W/m 19,3 km/h (3 Bft) 97,87 %
22.10.2023 09:42 12,2 C 11,7 C 8,3 C 86 % 1005,9 hPa 0,0 l/m 0 min 0 min 47 W/m 12,9 km/h (3 Bft) 97,83 %
22.10.2023 09:44 12,2 C 11,7 C 8,3 C 86 % 1005,8 hPa 0,0 l/m 0 min 0 min 47 W/m 12,9 km/h (3 Bft) 95,74 %
22.10.2023 09:46 12,2 C 11,7 C 8,3 C 86 % 1005,9 hPa 0,0 l/m 0 min 0 min 45 W/m 12,9 km/h (3 Bft) 97,87 %
22.10.2023 09:48 12,2 C 11,7 C 8,3 C 86 % 1005,9 hPa 0,0 l/m 0 min 0 min 42 W/m 12,9 km/h (3 Bft) 97,87 %
22.10.2023 09:50 12,2 C 11,7 C 8,3 C 86 % 1005,9 hPa 0,0 l/m 0 min 0 min 44 W/m 19,3 km/h (3 Bft) 97,87 %
22.10.2023 09:52 12,2 C 11,7 C 8,3 C 86 % 1005,9 hPa 0,0 l/m 0 min 0 min 46 W/m 12,9 km/h (3 Bft) 97,87 %
22.10.2023 09:54 12,2 C 11,7 C 8,3 C 86 % 1005,9 hPa 0,0 l/m 0 min 0 min 49 W/m 12,9 km/h (3 Bft) 97,87 %
22.10.2023 09:56 12,2 C 11,7 C 8,3 C 86 % 1005,9 hPa 0,0 l/m 0 min 0 min 52 W/m 16,1 km/h (3 Bft) 97,83 %
22.10.2023 09:58 12,2 C 11,7 C 8,3 C 86 % 1005,9 hPa 0,0 l/m 0 min 0 min 56 W/m 12,9 km/h (3 Bft) 96,43 %
22.10.2023 10:00 12,3 C 11,7 C 8,3 C 86 % 1006,0 hPa 0,0 l/m 0 min 0 min 66 W/m 12,9 km/h (3 Bft) 97,87 %
22.10.2023 10:02 12,3 C 12,2 C 8,3 C 86 % 1006,0 hPa 0,0 l/m 0 min 0 min 71 W/m 12,9 km/h (3 Bft) 100,00 %
22.10.2023 10:04 12,3 C 12,2 C 8,3 C 86 % 1006,0 hPa 0,0 l/m 0 min 0 min 76 W/m 12,9 km/h (3 Bft) 100,00 %
22.10.2023 10:06 12,3 C 12,2 C 8,3 C 86 % 1006,0 hPa 0,0 l/m 0 min 0 min 73 W/m 12,9 km/h (3 Bft) 97,87 %
22.10.2023 10:08 12,3 C 12,2 C 8,3 C 86 % 1006,0 hPa 0,0 l/m 0 min 0 min 71 W/m 12,9 km/h (3 Bft) 100,00 %
22.10.2023 10:10 12,3 C 12,2 C 8,3 C 86 % 1006,0 hPa 0,0 l/m 0 min 0 min 75 W/m 6,4 km/h (2 Bft) 97,87 %
22.10.2023 10:12 12,4 C 12,2 C 8,3 C 86 % 1006,0 hPa 0,0 l/m 0 min 0 min 76 W/m 16,1 km/h (3 Bft) 97,87 %
22.10.2023 10:14 12,4 C 12,2 C 8,3 C 86 % 1006,1 hPa 0,0 l/m 0 min 0 min 77 W/m 12,9 km/h (3 Bft) 100,00 %
22.10.2023 10:16 12,4 C 12,2 C 8,3 C 86 % 1006,2 hPa 0,0 l/m 0 min 0 min 76 W/m 12,9 km/h (3 Bft) 97,87 %
22.10.2023 10:18 12,4 C 12,2 C 8,9 C 86 % 1006,1 hPa 0,0 l/m 0 min 0 min 81 W/m 16,1 km/h (3 Bft) 97,87 %
22.10.2023 10:20 12,5 C 12,2 C 8,9 C 86 % 1006,1 hPa 0,0 l/m 0 min 0 min 89 W/m 12,9 km/h (3 Bft) 100,00 %
22.10.2023 10:22 12,5 C 12,2 C 8,9 C 86 % 1006,1 hPa 0,0 l/m 0 min 0 min 90 W/m 12,9 km/h (3 Bft) 100,00 %
22.10.2023 10:24 12,6 C 12,2 C 8,9 C 86 % 1006,1 hPa 0,0 l/m 0 min 0 min 88 W/m 16,1 km/h (3 Bft) 100,00 %
22.10.2023 10:26 12,6 C 12,2 C 8,9 C 86 % 1006,2 hPa 0,0 l/m 0 min 0 min 80 W/m 9,7 km/h (2 Bft) 100,00 %
22.10.2023 10:28 12,6 C 12,2 C 8,9 C 86 % 1006,2 hPa 0,0 l/m 0 min 0 min 79 W/m 12,9 km/h (3 Bft) 100,00 %
22.10.2023 10:30 12,6 C 12,2 C 8,9 C 86 % 1006,2 hPa 0,0 l/m 0 min 0 min 87 W/m 12,9 km/h (3 Bft) 97,87 %
22.10.2023 10:32 12,7 C 12,2 C 8,9 C 86 % 1006,2 hPa 0,0 l/m 0 min 0 min 93 W/m 22,5 km/h (4 Bft) 100,00 %
22.10.2023 10:34 12,7 C 12,2 C 8,9 C 86 % 1006,3 hPa 0,0 l/m 0 min 0 min 97 W/m 12,9 km/h (3 Bft) 100,00 %
22.10.2023 10:36 12,7 C 12,8 C 8,9 C 86 % 1006,3 hPa 0,0 l/m 0 min 0 min 96 W/m 12,9 km/h (3 Bft) 100,00 %
22.10.2023 10:38 12,7 C 12,8 C 8,9 C 87 % 1006,2 hPa 0,0 l/m 0 min 0 min 104 W/m 6,4 km/h (2 Bft) 100,00 %
22.10.2023 10:40 12,8 C 12,8 C 8,9 C 87 % 1006,3 hPa 0,0 l/m 0 min 0 min 120 W/m 16,1 km/h (3 Bft) 100,00 %
22.10.2023 10:42 12,8 C 12,8 C 8,9 C 87 % 1006,4 hPa 0,0 l/m 0 min 0 min 129 W/m 9,7 km/h (2 Bft) 100,00 %
22.10.2023 10:44 12,8 C 12,8 C 8,9 C 87 % 1006,4 hPa 0,0 l/m 0 min 0 min 136 W/m 9,7 km/h (2 Bft) 100,00 %
22.10.2023 10:46 12,9 C 12,8 C 9,4 C 87 % 1006,5 hPa 0,0 l/m 0 min 0 min 125 W/m 12,9 km/h (3 Bft) 100,00 %
22.10.2023 10:48 12,9 C 12,8 C 8,9 C 87 % 1006,5 hPa 0,0 l/m 0 min 0 min 115 W/m 12,9 km/h (3 Bft) 100,00 %
22.10.2023 10:50 12,9 C 12,8 C 8,9 C 87 % 1006,5 hPa 0,0 l/m 0 min 0 min 114 W/m 9,7 km/h (2 Bft) 100,00 %
22.10.2023 10:52 13,0 C 12,8 C 8,9 C 87 % 1006,5 hPa 0,0 l/m 0 min 0 min 106 W/m 22,5 km/h (4 Bft) 100,00 %
22.10.2023 10:54 13,0 C 12,8 C 8,9 C 87 % 1006,6 hPa 0,0 l/m 0 min 0 min 108 W/m 16,1 km/h (3 Bft) 100,00 %
22.10.2023 10:56 13,0 C 12,8 C 8,9 C 87 % 1006,6 hPa 0,0 l/m 0 min 0 min 129 W/m 12,9 km/h (3 Bft) 98,04 %
22.10.2023 10:58 13,1 C 12,8 C 9,4 C 87 % 1006,6 hPa 0,0 l/m 0 min 0 min 143 W/m 9,7 km/h (2 Bft) 100,00 %
22.10.2023 11:00 13,1 C 13,3 C 9,4 C 87 % 1006,6 hPa 0,0 l/m 0 min 0 min 151 W/m 12,9 km/h (3 Bft) 100,00 %
22.10.2023 11:02 13,1 C 13,3 C 9,4 C 87 % 1006,7 hPa 0,0 l/m 0 min 0 min 162 W/m 6,4 km/h (2 Bft) 95,65 %
22.10.2023 11:04 13,2 C 13,3 C 9,4 C 87 % 1006,7 hPa 0,0 l/m 2 min 0 min 189 W/m 19,3 km/h (3 Bft) 98,08 %
22.10.2023 11:06 13,2 C 13,3 C 9,4 C 87 % 1006,8 hPa 0,0 l/m 0 min 0 min 170 W/m 19,3 km/h (3 Bft) 95,74 %
22.10.2023 11:08 13,3 C 13,3 C 9,4 C 87 % 1006,8 hPa 0,0 l/m 0 min 0 min 159 W/m 12,9 km/h (3 Bft) 95,65 %
22.10.2023 11:10 13,3 C 13,3 C 9,4 C 87 % 1006,8 hPa 0,0 l/m 0 min 0 min 157 W/m 12,9 km/h (3 Bft) 97,87 %
22.10.2023 11:12 13,3 C 13,3 C 9,4 C 87 % 1006,9 hPa 0,0 l/m 0 min 0 min 168 W/m 16,1 km/h (3 Bft) 97,87 %
22.10.2023 11:14 13,4 C 13,3 C 9,4 C 86 % 1006,9 hPa 0,0 l/m 0 min 0 min 173 W/m 12,9 km/h (3 Bft) 97,87 %
22.10.2023 11:16 13,4 C 13,9 C 9,4 C 87 % 1007,0 hPa 0,0 l/m 0 min 0 min 155 W/m 12,9 km/h (3 Bft) 95,74 %
22.10.2023 11:18 13,5 C 13,9 C 9,4 C 87 % 1007,0 hPa 0,0 l/m 0 min 0 min 148 W/m 12,9 km/h (3 Bft) 97,87 %
22.10.2023 11:20 13,5 C 13,9 C 10,0 C 87 % 1007,1 hPa 0,0 l/m 0 min 0 min 153 W/m 16,1 km/h (3 Bft) 98,00 %
22.10.2023 11:22 13,6 C 13,9 C 10,0 C 87 % 1007,0 hPa 0,0 l/m 0 min 0 min 156 W/m 12,9 km/h (3 Bft) 97,83 %
22.10.2023 11:24 13,6 C 13,9 C 10,0 C 86 % 1007,0 hPa 0,0 l/m 0 min 0 min 150 W/m 12,9 km/h (3 Bft) 95,74 %
22.10.2023 11:26 13,6 C 13,9 C 10,0 C 86 % 1007,0 hPa 0,0 l/m 0 min 0 min 140 W/m 12,9 km/h (3 Bft) 97,87 %
22.10.2023 11:28 13,6 C 13,9 C 10,0 C 86 % 1007,0 hPa 0,0 l/m 0 min 0 min 132 W/m 12,9 km/h (3 Bft) 95,74 %
22.10.2023 11:30 13,7 C 13,9 C 10,0 C 86 % 1007,0 hPa 0,0 l/m 0 min 0 min 132 W/m 12,9 km/h (3 Bft) 95,74 %
22.10.2023 11:32 13,7 C 13,9 C 10,0 C 86 % 1007,0 hPa 0,0 l/m 0 min 0 min 144 W/m 16,1 km/h (3 Bft) 97,87 %
22.10.2023 11:34 13,7 C 13,9 C 10,0 C 86 % 1007,1 hPa 0,0 l/m 0 min 0 min 144 W/m 12,9 km/h (3 Bft) 97,87 %
22.10.2023 11:36 13,7 C 13,9 C 10,0 C 86 % 1007,1 hPa 0,0 l/m 0 min 0 min 133 W/m 12,9 km/h (3 Bft) 97,83 %
22.10.2023 11:38 13,7 C 13,9 C 10,0 C 86 % 1007,2 hPa 0,0 l/m 0 min 0 min 125 W/m 12,9 km/h (3 Bft) 95,74 %
22.10.2023 11:40 13,7 C 13,3 C 10,0 C 86 % 1007,2 hPa 0,0 l/m 0 min 0 min 124 W/m 12,9 km/h (3 Bft) 100,00 %
22.10.2023 11:42 13,8 C 13,9 C 10,0 C 86 % 1007,2 hPa 0,0 l/m 0 min 0 min 136 W/m 12,9 km/h (3 Bft) 100,00 %
22.10.2023 11:44 13,8 C 13,9 C 10,0 C 86 % 1007,2 hPa 0,0 l/m 0 min 0 min 144 W/m 12,9 km/h (3 Bft) 100,00 %
22.10.2023 11:46 13,8 C 13,9 C 10,0 C 86 % 1007,2 hPa 0,0 l/m 0 min 0 min 135 W/m 9,7 km/h (2 Bft) 97,87 %
22.10.2023 11:48 13,8 C 13,9 C 10,0 C 86 % 1007,2 hPa 0,0 l/m 0 min 0 min 135 W/m 9,7 km/h (2 Bft) 97,87 %
22.10.2023 11:50 13,9 C 13,9 C 10,0 C 87 % 1007,3 hPa 0,0 l/m 0 min 0 min 141 W/m 9,7 km/h (2 Bft) 97,87 %
22.10.2023 11:52 13,9 C 13,9 C 10,0 C 87 % 1007,3 hPa 0,0 l/m 0 min 0 min 135 W/m 6,4 km/h (2 Bft) 97,87 %
22.10.2023 11:54 13,9 C 13,9 C 10,0 C 87 % 1007,5 hPa 0,0 l/m 0 min 0 min 130 W/m 16,1 km/h (3 Bft) 95,74 %
22.10.2023 11:56 13,9 C 13,9 C 10,0 C 86 % 1007,5 hPa 0,0 l/m 0 min 0 min 132 W/m 9,7 km/h (2 Bft) 95,83 %
22.10.2023 11:58 13,9 C 13,9 C 10,0 C 86 % 1007,5 hPa 0,0 l/m 0 min 0 min 134 W/m 9,7 km/h (2 Bft) 93,62 %
22.10.2023 12:00 13,9 C 13,9 C 10,0 C 86 % 1007,4 hPa 0,0 l/m 0 min 0 min 123 W/m 6,4 km/h (2 Bft) 91,30 %
22.10.2023 12:02 13,9 C 13,9 C 10,0 C 86 % 1007,4 hPa 0,0 l/m 0 min 0 min 119 W/m 9,7 km/h (2 Bft) 93,62 %
22.10.2023 12:04 14,0 C 13,9 C 10,0 C 86 % 1007,5 hPa 0,0 l/m 0 min 0 min 119 W/m 6,4 km/h (2 Bft) 95,35 %
22.10.2023 12:08 14,0 C 13,9 C 10,0 C 86 % 1007,5 hPa 0,0 l/m 0 min 0 min 118 W/m 12,9 km/h (3 Bft) 95,65 %
22.10.2023 12:10 14,0 C 13,9 C 10,0 C 86 % 1007,4 hPa 0,0 l/m 0 min 0 min 121 W/m 6,4 km/h (2 Bft) 95,74 %
22.10.2023 12:12 14,0 C 13,9 C 10,0 C 86 % 1007,5 hPa 0,0 l/m 0 min 0 min 126 W/m 12,9 km/h (3 Bft) 93,62 %
22.10.2023 12:16 14,1 C 13,9 C 10,0 C 86 % 1007,5 hPa 0,0 l/m 0 min 0 min 136 W/m 19,3 km/h (3 Bft) 95,79 %
22.10.2023 12:18 14,0 C 13,9 C 10,0 C 86 % 1007,5 hPa 0,0 l/m 0 min 0 min 139 W/m 12,9 km/h (3 Bft) 91,49 %
22.10.2023 12:20 14,0 C 13,9 C 10,0 C 86 % 1007,6 hPa 0,0 l/m 0 min 0 min 136 W/m 16,1 km/h (3 Bft) 96,23 %
22.10.2023 12:22 14,0 C 13,9 C 10,0 C 86 % 1007,6 hPa 0,0 l/m 0 min 0 min 133 W/m 16,1 km/h (3 Bft) 95,74 %
22.10.2023 12:24 14,1 C 13,9 C 10,0 C 86 % 1007,6 hPa 0,0 l/m 0 min 0 min 128 W/m 12,9 km/h (3 Bft) 95,74 %
22.10.2023 12:26 14,1 C 13,9 C 10,0 C 86 % 1007,6 hPa 0,0 l/m 0 min 0 min 131 W/m 19,3 km/h (3 Bft) 95,74 %
22.10.2023 12:28 14,1 C 13,9 C 10,0 C 86 % 1007,6 hPa 0,0 l/m 0 min 0 min 135 W/m 6,4 km/h (2 Bft) 95,65 %
22.10.2023 12:30 14,1 C 13,9 C 10,0 C 86 % 1007,6 hPa 0,0 l/m 0 min 0 min 140 W/m 16,1 km/h (3 Bft) 95,74 %
22.10.2023 12:32 14,1 C 13,9 C 10,0 C 86 % 1007,7 hPa 0,0 l/m 0 min 0 min 148 W/m 12,9 km/h (3 Bft) 95,74 %
22.10.2023 12:34 14,1 C 13,9 C 10,0 C 86 % 1007,6 hPa 0,0 l/m 0 min 0 min 159 W/m 16,1 km/h (3 Bft) 93,62 %
22.10.2023 12:36 14,1 C 13,9 C 10,0 C 86 % 1007,6 hPa 0,0 l/m 0 min 0 min 172 W/m 16,1 km/h (3 Bft) 95,74 %
22.10.2023 12:38 14,1 C 13,9 C 10,0 C 86 % 1007,6 hPa 0,0 l/m 0 min 0 min 184 W/m 9,7 km/h (2 Bft) 95,74 %
22.10.2023 12:40 14,1 C 14,4 C 10,0 C 86 % 1007,6 hPa 0,0 l/m 0 min 0 min 195 W/m 9,7 km/h (2 Bft) 97,87 %
22.10.2023 12:42 14,2 C 14,4 C 10,6 C 86 % 1007,6 hPa 0,0 l/m 0 min 0 min 202 W/m 6,4 km/h (2 Bft) 97,83 %
22.10.2023 12:44 14,2 C 14,4 C 10,6 C 86 % 1007,6 hPa 0,0 l/m 0 min 0 min 208 W/m 12,9 km/h (3 Bft) 100,00 %
22.10.2023 12:46 14,3 C 14,4 C 10,6 C 86 % 1007,7 hPa 0,0 l/m 0 min 0 min 212 W/m 12,9 km/h (3 Bft) 100,00 %
22.10.2023 12:48 14,3 C 14,4 C 10,6 C 86 % 1007,7 hPa 0,0 l/m 0 min 0 min 214 W/m 16,1 km/h (3 Bft) 100,00 %
22.10.2023 12:50 14,3 C 15,0 C 10,6 C 86 % 1007,7 hPa 0,0 l/m 0 min 0 min 216 W/m 12,9 km/h (3 Bft) 97,87 %
22.10.2023 12:52 14,3 C 15,0 C 10,6 C 86 % 1007,7 hPa 0,0 l/m 0 min 0 min 216 W/m 9,7 km/h (2 Bft) 100,00 %
22.10.2023 12:54 14,3 C 15,0 C 10,6 C 86 % 1007,7 hPa 0,0 l/m 0 min 0 min 215 W/m 6,4 km/h (2 Bft) 100,00 %
22.10.2023 12:56 14,3 C 15,0 C 10,6 C 86 % 1007,7 hPa 0,0 l/m 0 min 0 min 218 W/m 9,7 km/h (2 Bft) 100,00 %
22.10.2023 12:58 14,4 C 15,0 C 10,6 C 86 % 1007,7 hPa 0,0 l/m 0 min 0 min 223 W/m 22,5 km/h (4 Bft) 100,00 %
22.10.2023 13:00 14,5 C 15,0 C 10,6 C 86 % 1007,7 hPa 0,0 l/m 0 min 0 min 229 W/m 16,1 km/h (3 Bft) 95,74 %
22.10.2023 13:02 14,5 C 15,0 C 10,6 C 85 % 1007,8 hPa 0,0 l/m 2 min 0 min 231 W/m 19,3 km/h (3 Bft) 100,00 %
22.10.2023 13:04 14,6 C 15,0 C 10,6 C 85 % 1007,8 hPa 0,0 l/m 2 min 0 min 231 W/m 16,1 km/h (3 Bft) 97,78 %
22.10.2023 13:08 14,6 C 15,0 C 11,1 C 85 % 1007,7 hPa 0,0 l/m 0 min 0 min 222 W/m 16,1 km/h (3 Bft) 98,86 %
22.10.2023 13:09 14,6 C 15,0 C 11,1 C 85 % 1007,7 hPa 0,0 l/m 0 min 0 min 200 W/m 12,9 km/h (3 Bft) 95,65 %
22.10.2023 13:12 14,7 C 15,0 C 10,6 C 84 % 1007,7 hPa 0,0 l/m 0 min 0 min 170 W/m 12,9 km/h (3 Bft) 98,59 %
22.10.2023 13:14 14,7 C 15,0 C 10,6 C 84 % 1007,8 hPa 0,0 l/m 0 min 0 min 184 W/m 19,3 km/h (3 Bft) 95,65 %
22.10.2023 13:16 14,7 C 15,0 C 10,6 C 84 % 1007,7 hPa 0,0 l/m 0 min 0 min 201 W/m 6,4 km/h (2 Bft) 95,74 %
22.10.2023 13:18 14,8 C 15,0 C 10,6 C 84 % 1007,8 hPa 0,0 l/m 0 min 0 min 189 W/m 9,7 km/h (2 Bft) 95,74 %
22.10.2023 13:20 14,8 C 15,0 C 11,1 C 85 % 1007,7 hPa 0,0 l/m 0 min 0 min 195 W/m 12,9 km/h (3 Bft) 97,87 %
22.10.2023 13:22 14,8 C 15,0 C 11,1 C 85 % 1007,8 hPa 0,0 l/m 0 min 0 min 214 W/m 12,9 km/h (3 Bft) 97,87 %
22.10.2023 13:24 14,8 C 15,0 C 11,1 C 84 % 1007,9 hPa 0,0 l/m 0 min 0 min 210 W/m 12,9 km/h (3 Bft) 97,87 %
22.10.2023 13:26 14,8 C 15,0 C 11,1 C 84 % 1007,9 hPa 0,0 l/m 0 min 0 min 217 W/m 6,4 km/h (2 Bft) 97,87 %
22.10.2023 13:28 14,9 C 15,0 C 11,1 C 84 % 1007,9 hPa 0,0 l/m 0 min 0 min 229 W/m 12,9 km/h (3 Bft) 97,83 %
22.10.2023 13:30 14,9 C 15,6 C 11,1 C 84 % 1007,9 hPa 0,0 l/m 2 min 0 min 232 W/m 22,5 km/h (4 Bft) 95,74 %
22.10.2023 13:32 14,9 C 15,6 C 11,1 C 84 % 1007,9 hPa 0,0 l/m 0 min 0 min 207 W/m 16,1 km/h (3 Bft) 95,74 %
22.10.2023 13:34 14,9 C 15,6 C 11,1 C 84 % 1008,0 hPa 0,0 l/m 0 min 0 min 207 W/m 12,9 km/h (3 Bft) 97,87 %
22.10.2023 13:36 15,0 C 15,6 C 11,1 C 84 % 1008,0 hPa 0,0 l/m 0 min 0 min 209 W/m 16,1 km/h (3 Bft) 97,87 %
22.10.2023 13:38 15,1 C 15,6 C 11,1 C 83 % 1008,0 hPa 0,0 l/m 0 min 0 min 198 W/m 19,3 km/h (3 Bft) 95,74 %
22.10.2023 13:40 15,0 C 15,6 C 11,1 C 83 % 1008,0 hPa 0,0 l/m 0 min 0 min 194 W/m 6,4 km/h (2 Bft) 95,92 %
22.10.2023 13:42 15,1 C 15,6 C 11,1 C 83 % 1008,1 hPa 0,0 l/m 0 min 0 min 201 W/m 9,7 km/h (2 Bft) 97,87 %
22.10.2023 13:44 15,1 C 15,0 C 11,1 C 83 % 1008,1 hPa 0,0 l/m 0 min 0 min 196 W/m 6,4 km/h (2 Bft) 97,87 %
22.10.2023 13:46 15,1 C 15,0 C 11,1 C 83 % 1008,1 hPa 0,0 l/m 0 min 0 min 200 W/m 12,9 km/h (3 Bft) 97,87 %
22.10.2023 13:48 15,1 C 15,0 C 11,1 C 83 % 1008,1 hPa 0,0 l/m 0 min 0 min 211 W/m 16,1 km/h (3 Bft) 100,00 %
22.10.2023 13:50 15,1 C 15,0 C 11,1 C 83 % 1008,1 hPa 0,0 l/m 0 min 0 min 219 W/m 12,9 km/h (3 Bft) 100,00 %
22.10.2023 13:52 15,1 C 15,0 C 11,1 C 83 % 1008,1 hPa 0,0 l/m 2 min 0 min 230 W/m 12,9 km/h (3 Bft) 100,00 %
22.10.2023 13:54 15,1 C 15,0 C 11,1 C 83 % 1008,1 hPa 0,0 l/m 0 min 0 min 212 W/m 16,1 km/h (3 Bft) 100,00 %
22.10.2023 13:56 15,1 C 15,0 C 11,1 C 83 % 1008,1 hPa 0,0 l/m 0 min 0 min 208 W/m 19,3 km/h (3 Bft) 97,87 %
22.10.2023 13:58 15,1 C 15,6 C 11,1 C 83 % 1008,1 hPa 0,0 l/m 2 min 0 min 256 W/m 16,1 km/h (3 Bft) 97,87 %
22.10.2023 14:00 15,2 C 15,6 C 11,1 C 83 % 1008,1 hPa 0,0 l/m 2 min 0 min 296 W/m 16,1 km/h (3 Bft) 100,00 %
22.10.2023 14:02 15,2 C 15,6 C 11,1 C 83 % 1008,2 hPa 0,0 l/m 2 min 0 min 255 W/m 12,9 km/h (3 Bft) 100,00 %
22.10.2023 14:04 15,2 C 15,6 C 11,1 C 83 % 1008,1 hPa 0,0 l/m 2 min 0 min 239 W/m 12,9 km/h (3 Bft) 100,00 %
22.10.2023 14:08 15,3 C 15,6 C 11,1 C 83 % 1008,1 hPa 0,0 l/m 4 min 0 min 277 W/m 19,3 km/h (3 Bft) 99,00 %
22.10.2023 14:12 15,4 C 15,6 C 11,1 C 83 % 1008,1 hPa 0,0 l/m 0 min 0 min 185 W/m 12,9 km/h (3 Bft) 100,00 %
22.10.2023 14:14 15,4 C 15,6 C 11,1 C 83 % 1008,1 hPa 0,0 l/m 0 min 0 min 159 W/m 12,9 km/h (3 Bft) 100,00 %
22.10.2023 14:16 15,4 C 15,6 C 11,1 C 83 % 1008,1 hPa 0,0 l/m 0 min 0 min 192 W/m 12,9 km/h (3 Bft) 100,00 %
22.10.2023 14:18 15,5 C 15,6 C 11,1 C 83 % 1008,1 hPa 0,0 l/m 2 min 0 min 506 W/m 12,9 km/h (3 Bft) 97,87 %
22.10.2023 14:20 15,5 C 15,6 C 11,1 C 83 % 1008,1 hPa 0,0 l/m 0 min 0 min 113 W/m 29,0 km/h (5 Bft) 100,00 %
22.10.2023 14:22 15,4 C 15,0 C 11,1 C 82 % 1008,2 hPa 0,0 l/m 0 min 0 min 105 W/m 19,3 km/h (3 Bft) 54,55 %
22.10.2023 14:24 15,4 C 15,0 C 11,1 C 82 % 1008,1 hPa 0,0 l/m 0 min 0 min 148 W/m 16,1 km/h (3 Bft) 97,87 %
22.10.2023 14:26 15,4 C 15,0 C 11,1 C 82 % 1008,1 hPa 0,0 l/m 0 min 0 min 174 W/m 6,4 km/h (2 Bft) 95,74 %
22.10.2023 14:28 15,4 C 15,0 C 11,1 C 83 % 1008,2 hPa 0,0 l/m 0 min 0 min 171 W/m 16,1 km/h (3 Bft) 95,74 %
22.10.2023 14:30 15,3 C 15,0 C 11,1 C 83 % 1008,2 hPa 0,0 l/m 0 min 0 min 138 W/m 12,9 km/h (3 Bft) 95,74 %
22.10.2023 14:32 15,3 C 15,0 C 11,1 C 83 % 1008,2 hPa 0,0 l/m 0 min 0 min 74 W/m 12,9 km/h (3 Bft) 97,87 %
22.10.2023 14:34 15,3 C 15,0 C 11,1 C 83 % 1008,3 hPa 0,0 l/m 0 min 0 min 73 W/m 6,4 km/h (2 Bft) 97,87 %
22.10.2023 14:36 15,3 C 15,0 C 11,1 C 83 % 1008,3 hPa 0,0 l/m 0 min 0 min 110 W/m 6,4 km/h (2 Bft) 93,48 %
22.10.2023 14:38 15,3 C 15,0 C 11,1 C 83 % 1008,3 hPa 0,0 l/m 0 min 0 min 160 W/m 16,1 km/h (3 Bft) 97,87 %
22.10.2023 14:40 15,3 C 15,0 C 11,1 C 83 % 1008,3 hPa 0,0 l/m 0 min 0 min 155 W/m 16,1 km/h (3 Bft) 97,87 %
22.10.2023 14:42 15,3 C 15,0 C 11,1 C 83 % 1008,3 hPa 0,0 l/m 0 min 0 min 74 W/m 16,1 km/h (3 Bft) 95,74 %
22.10.2023 14:44 15,3 C 15,0 C 11,1 C 83 % 1008,2 hPa 0,0 l/m 0 min 0 min 71 W/m 9,7 km/h (2 Bft) 95,74 %
22.10.2023 14:46 15,3 C 14,4 C 10,6 C 83 % 1008,4 hPa 0,0 l/m 0 min 0 min 61 W/m 9,7 km/h (2 Bft) 93,62 %
22.10.2023 14:48 15,3 C 14,4 C 10,6 C 83 % 1008,3 hPa 0,0 l/m 0 min 0 min 65 W/m 12,9 km/h (3 Bft) 95,65 %
22.10.2023 14:50 15,3 C 14,4 C 10,6 C 83 % 1008,3 hPa 0,0 l/m 0 min 0 min 71 W/m 16,1 km/h (3 Bft) 97,87 %
22.10.2023 14:52 15,3 C 14,4 C 10,6 C 84 % 1008,3 hPa 0,0 l/m 0 min 0 min 80 W/m 12,9 km/h (3 Bft) 95,74 %
22.10.2023 14:54 15,2 C 14,4 C 10,6 C 84 % 1008,4 hPa 0,0 l/m 0 min 0 min 79 W/m 6,4 km/h (2 Bft) 93,62 %
22.10.2023 14:56 15,2 C 14,4 C 10,6 C 84 % 1008,3 hPa 0,0 l/m 0 min 0 min 66 W/m 16,1 km/h (3 Bft) 97,87 %
22.10.2023 14:58 15,2 C 14,4 C 10,6 C 84 % 1008,3 hPa 0,0 l/m 0 min 0 min 54 W/m 22,5 km/h (4 Bft) 97,87 %
22.10.2023 15:00 15,2 C 14,4 C 10,6 C 84 % 1008,4 hPa 0,0 l/m 0 min 0 min 70 W/m 22,5 km/h (4 Bft) 95,74 %
22.10.2023 15:02 15,2 C 14,4 C 10,6 C 84 % 1008,4 hPa 0,0 l/m 0 min 0 min 82 W/m 12,9 km/h (3 Bft) 97,83 %
22.10.2023 15:04 15,2 C 14,4 C 10,6 C 84 % 1008,4 hPa 0,0 l/m 0 min 0 min 80 W/m 19,3 km/h (3 Bft) 98,08 %
22.10.2023 15:06 15,1 C 14,4 C 10,6 C 84 % 1008,4 hPa 0,0 l/m 0 min 0 min 73 W/m 16,1 km/h (3 Bft) 95,74 %
22.10.2023 15:08 15,1 C 14,4 C 10,6 C 84 % 1008,4 hPa 0,0 l/m 0 min 0 min 69 W/m 9,7 km/h (2 Bft) 95,74 %
22.10.2023 15:10 15,1 C 14,4 C 10,6 C 84 % 1008,5 hPa 0,0 l/m 0 min 0 min 69 W/m 6,4 km/h (2 Bft) 95,74 %
22.10.2023 15:12 15,2 C 14,4 C 10,6 C 85 % 1008,6 hPa 0,0 l/m 0 min 0 min 60 W/m 12,9 km/h (3 Bft) 97,87 %
22.10.2023 15:14 15,1 C 14,4 C 10,6 C 85 % 1008,6 hPa 0,0 l/m 0 min 0 min 44 W/m 12,9 km/h (3 Bft) 95,74 %
22.10.2023 15:16 15,1 C 14,4 C 10,6 C 85 % 1008,6 hPa 0,0 l/m 0 min 0 min 38 W/m 25,7 km/h (4 Bft) 97,87 %
22.10.2023 15:18 15,1 C 13,9 C 10,0 C 85 % 1008,8 hPa 0,0 l/m 0 min 2 min 34 W/m 25,7 km/h (4 Bft) 95,74 %
22.10.2023 15:20 14,9 C 13,9 C 9,4 C 86 % 1008,8 hPa 0,0 l/m 0 min 2 min 55 W/m 19,3 km/h (3 Bft) 95,65 %
22.10.2023 15:22 14,8 C 13,3 C 9,4 C 87 % 1008,8 hPa 0,0 l/m 0 min 2 min 76 W/m 16,1 km/h (3 Bft) 95,74 %
22.10.2023 15:24 14,7 C 13,3 C 9,4 C 88 % 1008,9 hPa 0,0 l/m 0 min 2 min 103 W/m 19,3 km/h (3 Bft) 93,62 %
22.10.2023 15:26 14,6 C 13,3 C 8,9 C 88 % 1008,8 hPa 0,0 l/m 0 min 2 min 121 W/m 12,9 km/h (3 Bft) 95,74 %
22.10.2023 15:28 14,5 C 13,3 C 9,4 C 89 % 1008,8 hPa 0,0 l/m 0 min 0 min 170 W/m 6,4 km/h (2 Bft) 93,62 %
22.10.2023 15:30 14,5 C 13,9 C 9,4 C 89 % 1008,8 hPa 0,2 l/m 2 min 0 min 200 W/m 6,4 km/h (2 Bft) 91,89 %
22.10.2023 15:32 14,5 C 13,9 C 9,4 C 90 % 1008,8 hPa 0,0 l/m 2 min 0 min 197 W/m 6,4 km/h (2 Bft) 95,65 %
22.10.2023 15:34 14,5 C 13,9 C 9,4 C 90 % 1008,9 hPa 0,0 l/m 2 min 0 min 190 W/m 12,9 km/h (3 Bft) 95,74 %
22.10.2023 15:36 14,5 C 13,9 C 9,4 C 91 % 1008,9 hPa 0,0 l/m 0 min 0 min 176 W/m 6,4 km/h (2 Bft) 95,74 %
22.10.2023 15:38 14,4 C 14,4 C 9,4 C 91 % 1008,9 hPa 0,0 l/m 2 min 0 min 186 W/m 16,1 km/h (3 Bft) 95,74 %
22.10.2023 15:40 14,4 C 14,4 C 9,4 C 91 % 1009,0 hPa 0,0 l/m 2 min 0 min 177 W/m 12,9 km/h (3 Bft) 95,74 %
22.10.2023 15:42 14,5 C 14,4 C 9,4 C 91 % 1009,0 hPa 0,0 l/m 0 min 0 min 170 W/m 12,9 km/h (3 Bft) 93,62 %
22.10.2023 15:44 14,4 C 13,9 C 9,4 C 91 % 1009,0 hPa 0,0 l/m 0 min 0 min 132 W/m 9,7 km/h (2 Bft) 95,74 %
22.10.2023 15:46 14,4 C 13,9 C 9,4 C 91 % 1008,9 hPa 0,0 l/m 0 min 0 min 111 W/m 9,7 km/h (2 Bft) 95,74 %
22.10.2023 15:48 14,5 C 13,9 C 9,4 C 92 % 1009,0 hPa 0,0 l/m 0 min 0 min 124 W/m 9,7 km/h (2 Bft) 93,48 %
22.10.2023 15:50 14,5 C 13,9 C 9,4 C 92 % 1009,0 hPa 0,0 l/m 0 min 0 min 67 W/m 12,9 km/h (3 Bft) 95,74 %
22.10.2023 15:52 14,4 C 13,9 C 9,4 C 92 % 1009,0 hPa 0,0 l/m 0 min 0 min 55 W/m 16,1 km/h (3 Bft) 97,87 %
22.10.2023 15:54 14,4 C 13,9 C 9,4 C 92 % 1009,0 hPa 0,0 l/m 0 min 0 min 74 W/m 6,4 km/h (2 Bft) 95,74 %
22.10.2023 15:56 14,4 C 13,9 C 9,4 C 92 % 1009,0 hPa 0,0 l/m 0 min 0 min 95 W/m 6,4 km/h (2 Bft) 97,87 %
22.10.2023 15:58 14,4 C 13,9 C 9,4 C 92 % 1009,0 hPa 0,0 l/m 0 min 0 min 99 W/m 16,1 km/h (3 Bft) 97,87 %
22.10.2023 16:00 14,3 C 13,9 C 9,4 C 91 % 1009,0 hPa 0,0 l/m 0 min 0 min 86 W/m 9,7 km/h (2 Bft) 100,00 %
22.10.2023 16:02 14,3 C 13,9 C 9,4 C 91 % 1009,1 hPa 0,0 l/m 0 min 0 min 73 W/m 12,9 km/h (3 Bft) 97,87 %
22.10.2023 16:04 14,3 C 13,9 C 9,4 C 91 % 1009,1 hPa 0,0 l/m 0 min 0 min 72 W/m 12,9 km/h (3 Bft) 100,00 %
22.10.2023 16:06 14,3 C 13,9 C 9,4 C 91 % 1009,0 hPa 0,0 l/m 0 min 0 min 85 W/m 12,9 km/h (3 Bft) 98,31 %
22.10.2023 16:08 14,3 C 13,9 C 9,4 C 91 % 1009,1 hPa 0,0 l/m 0 min 0 min 74 W/m 9,7 km/h (2 Bft) 97,14 %
22.10.2023 16:10 14,3 C 13,9 C 10,0 C 91 % 1009,1 hPa 0,0 l/m 0 min 0 min 60 W/m 12,9 km/h (3 Bft) 100,00 %
22.10.2023 16:12 14,3 C 13,9 C 10,0 C 91 % 1009,1 hPa 0,0 l/m 0 min 0 min 62 W/m 12,9 km/h (3 Bft) 100,00 %
22.10.2023 16:14 14,3 C 13,9 C 10,0 C 91 % 1009,1 hPa 0,0 l/m 0 min 0 min 79 W/m 6,4 km/h (2 Bft) 100,00 %
22.10.2023 16:16 14,3 C 14,4 C 10,0 C 91 % 1009,1 hPa 0,0 l/m 0 min 0 min 106 W/m 6,4 km/h (2 Bft) 100,00 %
22.10.2023 16:18 14,3 C 14,4 C 10,0 C 91 % 1009,2 hPa 0,0 l/m 0 min 2 min 137 W/m 19,3 km/h (3 Bft) 97,87 %
22.10.2023 16:20 14,4 C 14,4 C 10,0 C 91 % 1009,2 hPa 0,0 l/m 0 min 0 min 123 W/m 12,9 km/h (3 Bft) 100,00 %
22.10.2023 16:22 14,4 C 14,4 C 10,0 C 91 % 1009,2 hPa 0,0 l/m 0 min 0 min 135 W/m 16,1 km/h (3 Bft) 100,00 %
22.10.2023 16:24 14,4 C 14,4 C 10,0 C 91 % 1009,2 hPa 0,0 l/m 0 min 0 min 102 W/m 12,9 km/h (3 Bft) 100,00 %
22.10.2023 16:26 14,4 C 14,4 C 10,0 C 91 % 1009,2 hPa 0,0 l/m 0 min 0 min 97 W/m 12,9 km/h (3 Bft) 100,00 %
22.10.2023 16:28 14,4 C 14,4 C 10,0 C 91 % 1009,2 hPa 0,0 l/m 0 min 0 min 71 W/m 3,2 km/h (1 Bft) 97,87 %
22.10.2023 16:30 14,5 C 13,9 C 10,0 C 91 % 1009,3 hPa 0,0 l/m 0 min 0 min 46 W/m 9,7 km/h (2 Bft) 100,00 %
22.10.2023 16:32 14,5 C 13,9 C 10,0 C 91 % 1009,3 hPa 0,0 l/m 0 min 0 min 46 W/m 16,1 km/h (3 Bft) 100,00 %
22.10.2023 16:34 14,4 C 13,9 C 10,0 C 91 % 1009,3 hPa 0,0 l/m 0 min 0 min 46 W/m 3,2 km/h (1 Bft) 100,00 %
22.10.2023 16:36 14,5 C 13,9 C 10,0 C 91 % 1009,3 hPa 0,0 l/m 0 min 0 min 38 W/m 3,2 km/h (1 Bft) 100,00 %
22.10.2023 16:38 14,5 C 13,9 C 10,0 C 91 % 1009,3 hPa 0,0 l/m 0 min 0 min 30 W/m 0,0 km/h (0 Bft) 97,87 %
22.10.2023 16:40 14,6 C 13,9 C 10,0 C 91 % 1009,3 hPa 0,0 l/m 0 min 0 min 42 W/m 3,2 km/h (1 Bft) 100,00 %
22.10.2023 16:42 14,6 C 13,9 C 10,0 C 91 % 1009,3 hPa 0,0 l/m 0 min 0 min 95 W/m 3,2 km/h (1 Bft) 100,00 %
22.10.2023 16:44 14,6 C 14,4 C 10,6 C 91 % 1009,3 hPa 0,0 l/m 2 min 0 min 149 W/m 3,2 km/h (1 Bft) 100,00 %
22.10.2023 16:46 14,6 C 14,4 C 10,6 C 91 % 1009,3 hPa 0,0 l/m 2 min 0 min 221 W/m 9,7 km/h (2 Bft) 100,00 %
22.10.2023 16:48 14,6 C 14,4 C 10,6 C 91 % 1009,3 hPa 0,0 l/m 2 min 0 min 125 W/m 6,4 km/h (2 Bft) 100,00 %
22.10.2023 16:50 14,6 C 14,4 C 10,6 C 91 % 1009,3 hPa 0,0 l/m 0 min 0 min 80 W/m 9,7 km/h (2 Bft) 100,00 %
22.10.2023 16:52 14,6 C 14,4 C 10,6 C 91 % 1009,3 hPa 0,0 l/m 0 min 0 min 61 W/m 6,4 km/h (2 Bft) 100,00 %
22.10.2023 16:54 14,6 C 14,4 C 10,6 C 91 % 1009,3 hPa 0,0 l/m 0 min 0 min 51 W/m 12,9 km/h (3 Bft) 97,87 %
22.10.2023 16:56 14,6 C 14,4 C 10,6 C 90 % 1009,3 hPa 0,0 l/m 0 min 0 min 49 W/m 12,9 km/h (3 Bft) 100,00 %
22.10.2023 16:58 14,6 C 13,9 C 10,6 C 90 % 1009,3 hPa 0,0 l/m 0 min 0 min 54 W/m 16,1 km/h (3 Bft) 97,37 %
22.10.2023 17:00 14,6 C 13,9 C 10,6 C 90 % 1009,4 hPa 0,0 l/m 0 min 0 min 53 W/m 9,7 km/h (2 Bft) 100,00 %
22.10.2023 17:02 14,6 C 13,9 C 10,6 C 90 % 1009,4 hPa 0,0 l/m 0 min 0 min 56 W/m 12,9 km/h (3 Bft) 100,00 %
22.10.2023 17:04 14,6 C 13,9 C 10,0 C 90 % 1009,4 hPa 0,0 l/m 0 min 0 min 45 W/m 12,9 km/h (3 Bft) 97,87 %
22.10.2023 17:06 14,6 C 13,9 C 10,0 C 89 % 1009,4 hPa 0,0 l/m 0 min 0 min 34 W/m 9,7 km/h (2 Bft) 96,77 %
22.10.2023 17:08 14,5 C 13,9 C 10,0 C 89 % 1009,4 hPa 0,0 l/m 0 min 0 min 35 W/m 12,9 km/h (3 Bft) 97,14 %
22.10.2023 17:10 14,5 C 13,9 C 10,6 C 89 % 1009,5 hPa 0,0 l/m 0 min 0 min 43 W/m 12,9 km/h (3 Bft) 95,74 %
22.10.2023 17:12 14,5 C 13,9 C 10,6 C 89 % 1009,4 hPa 0,0 l/m 0 min 0 min 50 W/m 9,7 km/h (2 Bft) 95,74 %
22.10.2023 17:14 14,5 C 13,9 C 10,6 C 89 % 1009,5 hPa 0,0 l/m 0 min 0 min 55 W/m 12,9 km/h (3 Bft) 97,87 %
22.10.2023 17:16 14,5 C 13,9 C 10,6 C 89 % 1009,5 hPa 0,0 l/m 0 min 0 min 47 W/m 16,1 km/h (3 Bft) 93,48 %
22.10.2023 17:18 14,6 C 13,9 C 10,6 C 89 % 1009,5 hPa 0,0 l/m 0 min 0 min 33 W/m 9,7 km/h (2 Bft) 95,74 %
22.10.2023 17:20 14,6 C 13,9 C 10,6 C 89 % 1009,6 hPa 0,0 l/m 0 min 0 min 20 W/m 12,9 km/h (3 Bft) 95,74 %
22.10.2023 17:22 14,6 C 13,9 C 10,0 C 89 % 1009,5 hPa 0,0 l/m 0 min 0 min 17 W/m 9,7 km/h (2 Bft) 95,74 %
22.10.2023 17:24 14,6 C 13,9 C 10,0 C 89 % 1009,6 hPa 0,0 l/m 0 min 0 min 19 W/m 6,4 km/h (2 Bft) 95,74 %
22.10.2023 17:26 14,6 C 13,9 C 10,0 C 89 % 1009,6 hPa 0,0 l/m 0 min 0 min 25 W/m 6,4 km/h (2 Bft) 95,74 %
22.10.2023 17:28 14,6 C 13,9 C 10,0 C 89 % 1009,7 hPa 0,0 l/m 0 min 0 min 33 W/m 12,9 km/h (3 Bft) 95,74 %
22.10.2023 17:30 14,6 C 13,9 C 10,0 C 89 % 1009,6 hPa 0,0 l/m 0 min 0 min 37 W/m 19,3 km/h (3 Bft) 93,48 %
22.10.2023 17:32 14,5 C 13,9 C 10,0 C 89 % 1009,7 hPa 0,0 l/m 0 min 0 min 43 W/m 6,4 km/h (2 Bft) 93,62 %
22.10.2023 17:34 14,5 C 13,9 C 10,0 C 89 % 1009,7 hPa 0,0 l/m 0 min 0 min 38 W/m 6,4 km/h (2 Bft) 95,74 %
22.10.2023 17:36 14,5 C 13,9 C 10,0 C 89 % 1009,7 hPa 0,0 l/m 0 min 0 min 33 W/m 9,7 km/h (2 Bft) 93,62 %
22.10.2023 17:38 14,5 C 13,9 C 10,0 C 89 % 1009,7 hPa 0,0 l/m 0 min 0 min 27 W/m 9,7 km/h (2 Bft) 93,62 %
22.10.2023 17:40 14,5 C 13,9 C 10,0 C 89 % 1009,8 hPa 0,0 l/m 0 min 0 min 22 W/m 12,9 km/h (3 Bft) 95,74 %
22.10.2023 17:42 14,4 C 13,9 C 10,0 C 89 % 1009,8 hPa 0,0 l/m 0 min 0 min 19 W/m 9,7 km/h (2 Bft) 95,74 %
22.10.2023 17:44 14,4 C 13,9 C 10,0 C 89 % 1009,8 hPa 0,0 l/m 0 min 0 min 15 W/m 6,4 km/h (2 Bft) 93,48 %
22.10.2023 17:46 14,4 C 13,3 C 10,0 C 89 % 1009,8 hPa 0,0 l/m 0 min 0 min 12 W/m 9,7 km/h (2 Bft) 93,62 %
22.10.2023 17:48 14,3 C 13,3 C 10,0 C 89 % 1009,8 hPa 0,0 l/m 0 min 0 min 12 W/m 6,4 km/h (2 Bft) 93,62 %
22.10.2023 17:50 14,3 C 13,3 C 10,0 C 89 % 1009,8 hPa 0,0 l/m 0 min 0 min 12 W/m 9,7 km/h (2 Bft) 95,74 %
22.10.2023 17:52 14,3 C 13,3 C 10,0 C 89 % 1009,9 hPa 0,0 l/m 0 min 0 min 13 W/m 9,7 km/h (2 Bft) 100,00 %
22.10.2023 17:54 14,3 C 13,3 C 10,0 C 89 % 1009,8 hPa 0,0 l/m 0 min 0 min 16 W/m 6,4 km/h (2 Bft) 95,74 %
22.10.2023 17:56 14,3 C 13,3 C 10,0 C 89 % 1009,8 hPa 0,0 l/m 0 min 0 min 17 W/m 6,4 km/h (2 Bft) 95,74 %
22.10.2023 17:58 14,3 C 13,3 C 10,0 C 89 % 1009,8 hPa 0,0 l/m 0 min 0 min 17 W/m 3,2 km/h (1 Bft) 97,83 %
22.10.2023 18:00 14,3 C 13,3 C 10,0 C 89 % 1009,8 hPa 0,0 l/m 0 min 0 min 15 W/m 3,2 km/h (1 Bft) 95,74 %
22.10.2023 18:02 14,3 C 13,3 C 10,0 C 89 % 1009,9 hPa 0,0 l/m 0 min 0 min 12 W/m 0,0 km/h (0 Bft) 93,62 %
22.10.2023 18:04 14,3 C 13,3 C 9,4 C 89 % 1009,9 hPa 0,0 l/m 0 min 0 min 11 W/m 0,0 km/h (0 Bft) 95,74 %
22.10.2023 18:08 14,3 C 13,3 C 9,4 C 90 % 1009,9 hPa 0,0 l/m 0 min 0 min 11 W/m 3,2 km/h (1 Bft) 97,94 %
22.10.2023 18:10 14,3 C 12,8 C 9,4 C 90 % 1009,9 hPa 0,0 l/m 0 min 0 min 11 W/m 3,2 km/h (1 Bft) 97,83 %
22.10.2023 18:12 14,3 C 12,8 C 9,4 C 90 % 1009,9 hPa 0,0 l/m 0 min 0 min 8 W/m 6,4 km/h (2 Bft) 95,74 %
22.10.2023 18:14 14,3 C 12,8 C 9,4 C 90 % 1010,0 hPa 0,0 l/m 0 min 0 min 7 W/m 6,4 km/h (2 Bft) 97,87 %
22.10.2023 18:16 14,3 C 12,8 C 9,4 C 90 % 1009,9 hPa 0,0 l/m 0 min 0 min 5 W/m 6,4 km/h (2 Bft) 95,74 %
22.10.2023 18:18 14,2 C 12,8 C 9,4 C 90 % 1010,0 hPa 0,0 l/m 0 min 0 min 5 W/m 3,2 km/h (1 Bft) 97,87 %
22.10.2023 18:20 14,2 C 12,8 C 9,4 C 90 % 1010,1 hPa 0,0 l/m 0 min 0 min 5 W/m 6,4 km/h (2 Bft) 95,74 %
22.10.2023 18:22 14,1 C 12,8 C 9,4 C 90 % 1010,0 hPa 0,0 l/m 0 min 0 min 5 W/m 3,2 km/h (1 Bft) 95,74 %
22.10.2023 18:24 14,1 C 12,8 C 9,4 C 90 % 1010,1 hPa 0,0 l/m 0 min 0 min 5 W/m 9,7 km/h (2 Bft) 97,83 %
22.10.2023 18:26 14,1 C 13,3 C 9,4 C 90 % 1010,1 hPa 0,0 l/m 0 min 0 min 5 W/m 3,2 km/h (1 Bft) 95,74 %
22.10.2023 18:28 14,1 C 13,3 C 9,4 C 90 % 1010,1 hPa 0,0 l/m 0 min 0 min 5 W/m 6,4 km/h (2 Bft) 97,87 %
22.10.2023 18:30 14,1 C 13,3 C 9,4 C 91 % 1010,1 hPa 0,0 l/m 0 min 0 min 1 W/m 3,2 km/h (1 Bft) 95,74 %
22.10.2023 18:32 14,1 C 13,3 C 9,4 C 91 % 1010,2 hPa 0,0 l/m 0 min 0 min 0 W/m 9,7 km/h (2 Bft) 93,62 %
22.10.2023 18:34 14,0 C 13,3 C 9,4 C 91 % 1010,2 hPa 0,0 l/m 0 min 0 min 0 W/m 12,9 km/h (3 Bft) 97,87 %
22.10.2023 18:36 14,0 C 12,8 C 9,4 C 91 % 1010,2 hPa 0,0 l/m 0 min 0 min 0 W/m 6,4 km/h (2 Bft) 95,74 %
22.10.2023 18:38 14,0 C 12,8 C 9,4 C 91 % 1010,3 hPa 0,0 l/m 0 min 0 min 0 W/m 6,4 km/h (2 Bft) 97,83 %
22.10.2023 18:40 13,9 C 12,8 C 9,4 C 91 % 1010,3 hPa 0,0 l/m 0 min 0 min 0 W/m 6,4 km/h (2 Bft) 97,87 %
22.10.2023 18:42 13,9 C 12,8 C 9,4 C 91 % 1010,4 hPa 0,0 l/m 0 min 0 min 0 W/m 9,7 km/h (2 Bft) 97,87 %
22.10.2023 18:44 13,9 C 12,8 C 9,4 C 91 % 1010,4 hPa 0,0 l/m 0 min 0 min 0 W/m 12,9 km/h (3 Bft) 100,00 %
22.10.2023 18:46 13,9 C 12,8 C 9,4 C 91 % 1010,4 hPa 0,0 l/m 0 min 0 min 0 W/m 12,9 km/h (3 Bft) 100,00 %
22.10.2023 18:48 13,9 C 12,8 C 9,4 C 91 % 1010,4 hPa 0,0 l/m 0 min 0 min 0 W/m 6,4 km/h (2 Bft) 100,00 %
22.10.2023 18:50 13,8 C 12,8 C 9,4 C 91 % 1010,5 hPa 0,0 l/m 0 min 0 min 0 W/m 9,7 km/h (2 Bft) 97,83 %
22.10.2023 18:52 13,8 C 12,8 C 9,4 C 91 % 1010,5 hPa 0,0 l/m 0 min 0 min 0 W/m 9,7 km/h (2 Bft) 100,00 %
22.10.2023 18:54 13,8 C 12,8 C 9,4 C 91 % 1010,5 hPa 0,0 l/m 0 min 0 min 0 W/m 9,7 km/h (2 Bft) 97,87 %
22.10.2023 18:56 13,8 C 12,8 C 9,4 C 91 % 1010,6 hPa 0,0 l/m 0 min 0 min 0 W/m 3,2 km/h (1 Bft) 100,00 %
22.10.2023 18:58 13,8 C 12,8 C 9,4 C 91 % 1010,6 hPa 0,0 l/m 0 min 0 min 0 W/m 6,4 km/h (2 Bft) 100,00 %
22.10.2023 19:00 13,8 C 12,8 C 9,4 C 91 % 1010,6 hPa 0,0 l/m 0 min 0 min 0 W/m 6,4 km/h (2 Bft) 100,00 %
22.10.2023 19:04 13,8 C 12,8 C 9,4 C 91 % 1010,6 hPa 0,0 l/m 0 min 0 min 0 W/m 6,4 km/h (2 Bft) 100,00 %
22.10.2023 19:06 13,8 C 12,8 C 9,4 C 91 % 1010,6 hPa 0,0 l/m 0 min 0 min 0 W/m 6,4 km/h (2 Bft) 100,00 %
22.10.2023 19:08 13,8 C 12,8 C 9,4 C 91 % 1010,7 hPa 0,0 l/m 0 min 0 min 0 W/m 6,4 km/h (2 Bft) 97,14 %
22.10.2023 19:10 13,8 C 12,8 C 9,4 C 91 % 1010,8 hPa 0,0 l/m 0 min 0 min 0 W/m 6,4 km/h (2 Bft) 97,92 %
22.10.2023 19:12 13,8 C 12,8 C 9,4 C 91 % 1010,8 hPa 0,0 l/m 0 min 0 min 0 W/m 3,2 km/h (1 Bft) 97,83 %
22.10.2023 19:14 13,8 C 12,8 C 9,4 C 91 % 1010,8 hPa 0,0 l/m 0 min 0 min 0 W/m 6,4 km/h (2 Bft) 97,96 %
22.10.2023 19:16 13,8 C 12,8 C 9,4 C 91 % 1010,8 hPa 0,0 l/m 0 min 0 min 0 W/m 12,9 km/h (3 Bft) 95,65 %
22.10.2023 19:18 13,8 C 12,8 C 9,4 C 91 % 1010,8 hPa 0,0 l/m 0 min 0 min 0 W/m 9,7 km/h (2 Bft) 97,87 %
22.10.2023 19:20 13,7 C 12,8 C 9,4 C 91 % 1010,8 hPa 0,0 l/m 0 min 0 min 0 W/m 12,9 km/h (3 Bft) 95,74 %
22.10.2023 19:22 13,7 C 12,8 C 9,4 C 91 % 1010,9 hPa 0,0 l/m 0 min 0 min 0 W/m 9,7 km/h (2 Bft) 97,87 %
22.10.2023 19:24 13,7 C 12,8 C 9,4 C 91 % 1010,9 hPa 0,0 l/m 0 min 0 min 0 W/m 9,7 km/h (2 Bft) 100,00 %
22.10.2023 19:26 13,7 C 12,8 C 9,4 C 91 % 1010,9 hPa 0,0 l/m 0 min 0 min 0 W/m 12,9 km/h (3 Bft) 96,00 %
22.10.2023 19:28 13,7 C 12,8 C 9,4 C 91 % 1010,9 hPa 0,0 l/m 0 min 0 min 0 W/m 6,4 km/h (2 Bft) 97,87 %
22.10.2023 19:30 13,7 C 12,8 C 9,4 C 91 % 1011,0 hPa 0,0 l/m 0 min 0 min 0 W/m 6,4 km/h (2 Bft) 97,87 %
22.10.2023 19:32 13,7 C 12,8 C 9,4 C 91 % 1011,0 hPa 0,0 l/m 0 min 0 min 0 W/m 6,4 km/h (2 Bft) 95,74 %
22.10.2023 19:34 13,7 C 12,8 C 9,4 C 91 % 1011,0 hPa 0,0 l/m 0 min 0 min 0 W/m 3,2 km/h (1 Bft) 100,00 %
22.10.2023 19:36 13,6 C 12,8 C 9,4 C 91 % 1011,0 hPa 0,0 l/m 0 min 0 min 0 W/m 9,7 km/h (2 Bft) 97,87 %
22.10.2023 19:38 13,6 C 12,8 C 9,4 C 91 % 1011,0 hPa 0,0 l/m 0 min 0 min 0 W/m 3,2 km/h (1 Bft) 97,87 %
22.10.2023 19:40 13,6 C 12,8 C 9,4 C 91 % 1011,0 hPa 0,0 l/m 0 min 0 min 0 W/m 0,0 km/h (0 Bft) 97,87 %
22.10.2023 19:42 13,6 C 12,2 C 9,4 C 91 % 1011,0 hPa 0,0 l/m 0 min 0 min 0 W/m 3,2 km/h (1 Bft) 100,00 %
22.10.2023 19:44 13,6 C 12,2 C 8,9 C 91 % 1011,1 hPa 0,0 l/m 0 min 0 min 0 W/m 6,4 km/h (2 Bft) 97,87 %
22.10.2023 19:46 13,6 C 12,2 C 8,9 C 91 % 1011,1 hPa 0,0 l/m 0 min 0 min 0 W/m 6,4 km/h (2 Bft) 100,00 %
22.10.2023 19:48 13,6 C 12,2 C 8,9 C 91 % 1011,1 hPa 0,0 l/m 0 min 0 min 0 W/m 3,2 km/h (1 Bft) 100,00 %
22.10.2023 19:50 13,5 C 12,2 C 8,9 C 91 % 1011,1 hPa 0,0 l/m 0 min 0 min 0 W/m 3,2 km/h (1 Bft) 100,00 %
22.10.2023 19:52 13,5 C 12,2 C 8,9 C 91 % 1011,2 hPa 0,0 l/m 0 min 0 min 0 W/m 9,7 km/h (2 Bft) 100,00 %
22.10.2023 19:54 13,5 C 12,2 C 8,9 C 91 % 1011,2 hPa 0,0 l/m 0 min 0 min 0 W/m 12,9 km/h (3 Bft) 100,00 %
22.10.2023 19:56 13,4 C 12,2 C 8,9 C 91 % 1011,2 hPa 0,0 l/m 0 min 0 min 0 W/m 6,4 km/h (2 Bft) 100,00 %
22.10.2023 19:58 13,4 C 12,2 C 8,9 C 91 % 1011,3 hPa 0,0 l/m 0 min 0 min 0 W/m 6,4 km/h (2 Bft) 100,00 %
22.10.2023 20:00 13,4 C 12,2 C 8,9 C 91 % 1011,3 hPa 0,0 l/m 0 min 0 min 0 W/m 3,2 km/h (1 Bft) 95,74 %
22.10.2023 20:02 13,4 C 12,2 C 8,9 C 91 % 1011,3 hPa 0,0 l/m 0 min 0 min 0 W/m 3,2 km/h (1 Bft) 100,00 %
22.10.2023 20:04 13,3 C 12,2 C 8,9 C 91 % 1011,4 hPa 0,0 l/m 0 min 0 min 0 W/m 3,2 km/h (1 Bft) 97,87 %
22.10.2023 20:08 13,3 C 12,2 C 8,9 C 91 % 1011,4 hPa 0,0 l/m 0 min 0 min 0 W/m 6,4 km/h (2 Bft) 94,95 %
22.10.2023 20:09 13,3 C 12,2 C 8,9 C 91 % 1011,5 hPa 0,0 l/m 0 min 0 min 0 W/m 0,0 km/h (0 Bft) 100,00 %
22.10.2023 20:12 13,2 C 12,2 C 8,9 C 91 % 1011,5 hPa 0,0 l/m 0 min 0 min 0 W/m 6,4 km/h (2 Bft) 97,14 %
22.10.2023 20:14 13,2 C 12,2 C 8,9 C 91 % 1011,6 hPa 0,0 l/m 0 min 0 min 0 W/m 9,7 km/h (2 Bft) 97,87 %
22.10.2023 20:16 13,2 C 12,2 C 8,9 C 91 % 1011,6 hPa 0,0 l/m 0 min 0 min 0 W/m 3,2 km/h (1 Bft) 97,87 %
22.10.2023 20:18 13,1 C 12,2 C 8,9 C 91 % 1011,5 hPa 0,0 l/m 0 min 0 min 0 W/m 6,4 km/h (2 Bft) 97,14 %
22.10.2023 20:20 13,1 C 12,2 C 8,9 C 92 % 1011,6 hPa 0,0 l/m 0 min 0 min 0 W/m 6,4 km/h (2 Bft) 95,74 %
22.10.2023 20:22 13,1 C 11,7 C 8,9 C 92 % 1011,6 hPa 0,0 l/m 0 min 0 min 0 W/m 12,9 km/h (3 Bft) 96,61 %
22.10.2023 20:24 13,1 C 11,7 C 8,9 C 92 % 1011,6 hPa 0,0 l/m 0 min 0 min 0 W/m 6,4 km/h (2 Bft) 97,14 %
22.10.2023 20:26 13,0 C 11,7 C 8,9 C 92 % 1011,6 hPa 0,0 l/m 0 min 0 min 0 W/m 3,2 km/h (1 Bft) 91,49 %
22.10.2023 20:28 12,9 C 11,7 C 8,9 C 92 % 1011,6 hPa 0,0 l/m 0 min 0 min 0 W/m 6,4 km/h (2 Bft) 98,28 %
22.10.2023 20:30 12,9 C 11,7 C 8,9 C 92 % 1011,6 hPa 0,0 l/m 0 min 0 min 0 W/m 6,4 km/h (2 Bft) 94,44 %
22.10.2023 20:32 12,9 C 11,7 C 8,3 C 92 % 1011,6 hPa 0,0 l/m 0 min 0 min 0 W/m 3,2 km/h (1 Bft) 94,34 %
22.10.2023 20:34 12,8 C 11,7 C 8,3 C 92 % 1011,6 hPa 0,0 l/m 0 min 0 min 0 W/m 6,4 km/h (2 Bft) 93,62 %
22.10.2023 20:36 12,8 C 11,7 C 8,3 C 92 % 1011,6 hPa 0,0 l/m 0 min 0 min 0 W/m 9,7 km/h (2 Bft) 95,74 %
22.10.2023 20:38 12,8 C 11,7 C 8,3 C 92 % 1011,6 hPa 0,0 l/m 0 min 0 min 0 W/m 3,2 km/h (1 Bft) 95,74 %
22.10.2023 20:40 12,8 C 11,7 C 8,3 C 92 % 1011,6 hPa 0,0 l/m 0 min 0 min 0 W/m 0,0 km/h (0 Bft) 95,74 %
22.10.2023 20:42 12,7 C 11,7 C 8,3 C 92 % 1011,6 hPa 0,0 l/m 0 min 0 min 0 W/m 0,0 km/h (0 Bft) 95,74 %
22.10.2023 20:44 12,7 C 11,7 C 8,3 C 92 % 1011,7 hPa 0,0 l/m 0 min 0 min 0 W/m 6,4 km/h (2 Bft) 95,74 %
22.10.2023 20:46 12,7 C 11,7 C 8,3 C 92 % 1011,6 hPa 0,0 l/m 0 min 0 min 0 W/m 3,2 km/h (1 Bft) 95,65 %
22.10.2023 20:48 12,6 C 11,7 C 8,3 C 92 % 1011,7 hPa 0,0 l/m 0 min 0 min 0 W/m 6,4 km/h (2 Bft) 55,32 %
22.10.2023 20:50 12,6 C 11,7 C 8,3 C 92 % 1011,8 hPa 0,0 l/m 0 min 0 min 0 W/m 6,4 km/h (2 Bft) 93,62 %
22.10.2023 20:52 12,6 C 11,7 C 8,3 C 92 % 1011,8 hPa 0,0 l/m 0 min 0 min 0 W/m 3,2 km/h (1 Bft) 97,87 %
22.10.2023 20:54 12,6 C 11,7 C 8,3 C 92 % 1011,8 hPa 0,0 l/m 0 min 0 min 0 W/m 6,4 km/h (2 Bft) 97,50 %
22.10.2023 20:56 12,6 C 11,7 C 8,3 C 92 % 1011,8 hPa 0,0 l/m 0 min 0 min 0 W/m 3,2 km/h (1 Bft) 91,49 %
22.10.2023 20:58 12,6 C 11,7 C 8,3 C 92 % 1011,8 hPa 0,0 l/m 0 min 0 min 0 W/m 9,7 km/h (2 Bft) 97,87 %
22.10.2023 21:00 12,5 C 11,7 C 8,3 C 92 % 1011,8 hPa 0,0 l/m 0 min 0 min 0 W/m 3,2 km/h (1 Bft) 93,62 %
22.10.2023 21:02 12,5 C 11,7 C 8,3 C 93 % 1011,9 hPa 0,0 l/m 0 min 0 min 0 W/m 3,2 km/h (1 Bft) 89,13 %
22.10.2023 21:04 12,4 C 11,1 C 8,3 C 93 % 1011,9 hPa 0,0 l/m 0 min 0 min 0 W/m 6,4 km/h (2 Bft) 92,16 %
22.10.2023 21:06 12,4 C 11,1 C 8,3 C 93 % 1011,9 hPa 0,0 l/m 0 min 0 min 0 W/m 9,7 km/h (2 Bft) 95,74 %
22.10.2023 21:08 12,4 C 11,1 C 8,3 C 93 % 1011,9 hPa 0,0 l/m 0 min 0 min 0 W/m 9,7 km/h (2 Bft) 91,84 %
22.10.2023 21:10 12,4 C 11,1 C 8,3 C 93 % 1012,0 hPa 0,0 l/m 0 min 0 min 0 W/m 9,7 km/h (2 Bft) 95,74 %
22.10.2023 21:12 12,4 C 11,1 C 8,3 C 93 % 1012,0 hPa 0,0 l/m 0 min 0 min 0 W/m 6,4 km/h (2 Bft) 95,74 %
22.10.2023 21:14 12,4 C 11,1 C 8,3 C 93 % 1012,0 hPa 0,0 l/m 0 min 0 min 0 W/m 3,2 km/h (1 Bft) 95,74 %
22.10.2023 21:16 12,3 C 11,1 C 8,3 C 93 % 1012,1 hPa 0,0 l/m 0 min 0 min 0 W/m 6,4 km/h (2 Bft) 95,74 %
22.10.2023 21:18 12,3 C 11,1 C 8,3 C 93 % 1012,1 hPa 0,0 l/m 0 min 0 min 0 W/m 6,4 km/h (2 Bft) 95,65 %
22.10.2023 21:20 12,3 C 11,1 C 8,3 C 93 % 1012,1 hPa 0,0 l/m 0 min 0 min 0 W/m 3,2 km/h (1 Bft) 95,74 %
22.10.2023 21:22 12,3 C 11,1 C 8,3 C 93 % 1012,1 hPa 0,0 l/m 0 min 0 min 0 W/m 0,0 km/h (0 Bft) 97,87 %
22.10.2023 21:24 12,3 C 11,1 C 8,3 C 93 % 1012,1 hPa 0,0 l/m 0 min 0 min 0 W/m 0,0 km/h (0 Bft) 95,74 %
22.10.2023 21:26 12,3 C 11,1 C 8,3 C 93 % 1012,2 hPa 0,0 l/m 0 min 0 min 0 W/m 0,0 km/h (0 Bft) 95,74 %
22.10.2023 21:28 12,3 C 11,1 C 8,3 C 93 % 1012,2 hPa 0,0 l/m 0 min 0 min 0 W/m 0,0 km/h (0 Bft) 97,87 %
22.10.2023 21:30 12,3 C 11,1 C 8,3 C 93 % 1012,2 hPa 0,0 l/m 0 min 0 min 0 W/m 3,2 km/h (1 Bft) 95,74 %
22.10.2023 21:32 12,2 C 11,1 C 8,3 C 94 % 1012,2 hPa 0,0 l/m 0 min 0 min 0 W/m 3,2 km/h (1 Bft) 95,65 %
22.10.2023 21:34 12,2 C 11,1 C 8,3 C 94 % 1012,2 hPa 0,0 l/m 0 min 0 min 0 W/m 9,7 km/h (2 Bft) 97,87 %
22.10.2023 21:36 12,2 C 11,1 C 8,3 C 94 % 1012,2 hPa 0,0 l/m 0 min 0 min 0 W/m 6,4 km/h (2 Bft) 100,00 %
22.10.2023 21:38 12,2 C 11,1 C 8,3 C 94 % 1012,3 hPa 0,0 l/m 0 min 0 min 0 W/m 9,7 km/h (2 Bft) 97,87 %
22.10.2023 21:40 12,2 C 11,1 C 7,8 C 94 % 1012,3 hPa 0,0 l/m 0 min 0 min 0 W/m 9,7 km/h (2 Bft) 100,00 %
22.10.2023 21:42 12,2 C 11,1 C 7,8 C 94 % 1012,4 hPa 0,0 l/m 0 min 0 min 0 W/m 6,4 km/h (2 Bft) 100,00 %
22.10.2023 21:44 12,2 C 11,1 C 8,3 C 94 % 1012,4 hPa 0,0 l/m 0 min 0 min 0 W/m 6,4 km/h (2 Bft) 97,87 %
22.10.2023 21:46 12,2 C 11,1 C 8,3 C 94 % 1012,4 hPa 0,0 l/m 0 min 0 min 0 W/m 3,2 km/h (1 Bft) 100,00 %
22.10.2023 21:48 12,2 C 11,1 C 8,3 C 94 % 1012,5 hPa 0,0 l/m 0 min 0 min 0 W/m 9,7 km/h (2 Bft) 100,00 %
22.10.2023 21:50 12,2 C 11,1 C 8,3 C 94 % 1012,5 hPa 0,0 l/m 0 min 0 min 0 W/m 3,2 km/h (1 Bft) 100,00 %
22.10.2023 21:52 12,2 C 11,1 C 8,3 C 94 % 1012,5 hPa 0,0 l/m 0 min 0 min 0 W/m 0,0 km/h (0 Bft) 95,74 %
22.10.2023 21:54 12,2 C 11,1 C 8,3 C 94 % 1012,5 hPa 0,0 l/m 0 min 0 min 0 W/m 0,0 km/h (0 Bft) 100,00 %
22.10.2023 21:56 12,2 C 11,7 C 8,3 C 94 % 1012,6 hPa 0,0 l/m 0 min 0 min 0 W/m 0,0 km/h (0 Bft) 100,00 %
22.10.2023 21:58 12,2 C 11,7 C 8,3 C 94 % 1012,5 hPa 0,0 l/m 0 min 0 min 0 W/m 0,0 km/h (0 Bft) 100,00 %
22.10.2023 22:00 12,2 C 11,7 C 8,3 C 94 % 1012,5 hPa 0,0 l/m 0 min 0 min 0 W/m 0,0 km/h (0 Bft) 100,00 %
22.10.2023 22:02 12,2 C 11,7 C 8,3 C 94 % 1012,6 hPa 0,0 l/m 0 min 0 min 0 W/m 6,4 km/h (2 Bft) 97,87 %
22.10.2023 22:04 12,2 C 11,1 C 8,3 C 94 % 1012,6 hPa 0,0 l/m 0 min 0 min 0 W/m 3,2 km/h (1 Bft) 96,08 %
22.10.2023 22:06 12,2 C 11,1 C 8,3 C 94 % 1012,6 hPa 0,0 l/m 0 min 0 min 0 W/m 3,2 km/h (1 Bft) 97,87 %
22.10.2023 22:08 12,2 C 11,1 C 8,3 C 94 % 1012,6 hPa 0,0 l/m 0 min 0 min 0 W/m 6,4 km/h (2 Bft) 100,00 %
22.10.2023 22:10 12,2 C 11,1 C 8,3 C 94 % 1012,6 hPa 0,0 l/m 0 min 0 min 0 W/m 3,2 km/h (1 Bft) 100,00 %
22.10.2023 22:12 12,2 C 11,1 C 8,3 C 95 % 1012,6 hPa 0,0 l/m 0 min 0 min 0 W/m 0,0 km/h (0 Bft) 100,00 %
22.10.2023 22:14 12,1 C 11,1 C 8,3 C 95 % 1012,6 hPa 0,0 l/m 0 min 0 min 0 W/m 0,0 km/h (0 Bft) 100,00 %
22.10.2023 22:16 12,2 C 11,1 C 8,3 C 95 % 1012,6 hPa 0,0 l/m 0 min 0 min 0 W/m 0,0 km/h (0 Bft) 100,00 %
22.10.2023 22:18 12,1 C 11,1 C 8,3 C 95 % 1012,6 hPa 0,0 l/m 0 min 0 min 0 W/m 0,0 km/h (0 Bft) 100,00 %
22.10.2023 22:20 12,1 C 11,1 C 8,3 C 95 % 1012,6 hPa 0,0 l/m 0 min 0 min 0 W/m 3,2 km/h (1 Bft) 100,00 %
22.10.2023 22:22 12,1 C 11,1 C 8,3 C 95 % 1012,6 hPa 0,0 l/m 0 min 0 min 0 W/m 3,2 km/h (1 Bft) 100,00 %
22.10.2023 22:24 12,1 C 11,1 C 8,3 C 95 % 1012,6 hPa 0,0 l/m 0 min 0 min 0 W/m 3,2 km/h (1 Bft) 100,00 %
22.10.2023 22:26 12,1 C 11,1 C 7,8 C 95 % 1012,6 hPa 0,0 l/m 0 min 0 min 0 W/m 3,2 km/h (1 Bft) 100,00 %
22.10.2023 22:28 12,1 C 11,1 C 8,3 C 95 % 1012,6 hPa 0,0 l/m 0 min 0 min 0 W/m 3,2 km/h (1 Bft) 100,00 %
22.10.2023 22:30 12,1 C 11,1 C 8,3 C 95 % 1012,6 hPa 0,0 l/m 0 min 0 min 0 W/m 3,2 km/h (1 Bft) 100,00 %
22.10.2023 22:32 12,1 C 11,1 C 8,3 C 95 % 1012,6 hPa 0,0 l/m 0 min 0 min 0 W/m 6,4 km/h (2 Bft) 100,00 %
22.10.2023 22:34 12,1 C 11,1 C 8,3 C 95 % 1012,7 hPa 0,0 l/m 0 min 0 min 0 W/m 3,2 km/h (1 Bft) 100,00 %
22.10.2023 22:36 12,1 C 11,1 C 8,3 C 95 % 1012,6 hPa 0,0 l/m 0 min 0 min 0 W/m 3,2 km/h (1 Bft) 100,00 %
22.10.2023 22:38 12,1 C 11,1 C 8,3 C 95 % 1012,7 hPa 0,0 l/m 0 min 0 min 0 W/m 3,2 km/h (1 Bft) 97,87 %
22.10.2023 22:40 12,1 C 11,1 C 8,3 C 95 % 1012,8 hPa 0,0 l/m 0 min 0 min 0 W/m 12,9 km/h (3 Bft) 100,00 %
22.10.2023 22:42 12,1 C 11,1 C 8,3 C 95 % 1012,7 hPa 0,0 l/m 0 min 0 min 0 W/m 6,4 km/h (2 Bft) 95,74 %
22.10.2023 22:44 12,0 C 11,1 C 8,3 C 95 % 1012,7 hPa 0,0 l/m 0 min 0 min 0 W/m 0,0 km/h (0 Bft) 100,00 %
22.10.2023 22:46 12,1 C 11,1 C 8,3 C 95 % 1012,7 hPa 0,0 l/m 0 min 0 min 0 W/m 3,2 km/h (1 Bft) 97,83 %
22.10.2023 22:48 12,0 C 11,1 C 8,3 C 95 % 1012,7 hPa 0,0 l/m 0 min 0 min 0 W/m 3,2 km/h (1 Bft) 95,74 %
22.10.2023 22:50 12,0 C 11,1 C 7,8 C 95 % 1012,8 hPa 0,0 l/m 0 min 0 min 0 W/m 3,2 km/h (1 Bft) 97,87 %
22.10.2023 22:52 12,0 C 11,1 C 7,8 C 95 % 1012,8 hPa 0,0 l/m 0 min 0 min 0 W/m 0,0 km/h (0 Bft) 95,74 %
22.10.2023 22:54 11,9 C 11,1 C 7,8 C 95 % 1012,8 hPa 0,0 l/m 0 min 0 min 0 W/m 0,0 km/h (0 Bft) 97,87 %
22.10.2023 22:56 11,9 C 11,1 C 7,8 C 95 % 1012,8 hPa 0,0 l/m 0 min 0 min 0 W/m 0,0 km/h (0 Bft) 100,00 %
22.10.2023 22:58 11,9 C 10,6 C 7,8 C 95 % 1012,8 hPa 0,0 l/m 0 min 0 min 0 W/m 0,0 km/h (0 Bft) 97,87 %
22.10.2023 23:00 11,9 C 10,6 C 7,8 C 95 % 1012,9 hPa 0,0 l/m 0 min 0 min 0 W/m 0,0 km/h (0 Bft) 95,65 %
22.10.2023 23:02 11,9 C 10,6 C 7,8 C 95 % 1012,9 hPa 0,0 l/m 0 min 0 min 0 W/m 12,9 km/h (3 Bft) 97,87 %
22.10.2023 23:04 11,8 C 10,6 C 7,8 C 95 % 1012,9 hPa 0,0 l/m 0 min 0 min 0 W/m 9,7 km/h (2 Bft) 95,74 %
22.10.2023 23:06 11,8 C 10,6 C 7,8 C 95 % 1012,9 hPa 0,0 l/m 0 min 0 min 0 W/m 9,7 km/h (2 Bft) 93,62 %
22.10.2023 23:08 11,8 C 10,6 C 7,8 C 95 % 1012,8 hPa 0,0 l/m 0 min 0 min 0 W/m 3,2 km/h (1 Bft) 91,49 %
22.10.2023 23:10 11,8 C 10,6 C 7,8 C 95 % 1012,8 hPa 0,0 l/m 0 min 0 min 0 W/m 0,0 km/h (0 Bft) 93,62 %
22.10.2023 23:12 11,8 C 10,6 C 7,8 C 95 % 1012,8 hPa 0,0 l/m 0 min 0 min 0 W/m 0,0 km/h (0 Bft) 93,62 %
22.10.2023 23:14 11,8 C 10,6 C 7,8 C 95 % 1012,8 hPa 0,0 l/m 0 min 0 min 0 W/m 0,0 km/h (0 Bft) 93,62 %
22.10.2023 23:16 11,8 C 10,6 C 7,8 C 95 % 1012,9 hPa 0,0 l/m 0 min 0 min 0 W/m 0,0 km/h (0 Bft) 91,49 %
22.10.2023 23:18 11,8 C 10,6 C 7,8 C 95 % 1012,9 hPa 0,0 l/m 0 min 0 min 0 W/m 3,2 km/h (1 Bft) 91,30 %
22.10.2023 23:20 11,7 C 10,6 C 7,8 C 95 % 1012,9 hPa 0,0 l/m 0 min 0 min 0 W/m 0,0 km/h (0 Bft) 95,74 %
22.10.2023 23:22 11,7 C 10,6 C 7,8 C 95 % 1012,9 hPa 0,0 l/m 0 min 0 min 0 W/m 0,0 km/h (0 Bft) 97,87 %
22.10.2023 23:24 11,7 C 10,6 C 7,8 C 95 % 1012,8 hPa 0,0 l/m 0 min 0 min 0 W/m 0,0 km/h (0 Bft) 95,74 %
22.10.2023 23:26 11,7 C 10,6 C 7,8 C 95 % 1012,9 hPa 0,0 l/m 0 min 0 min 0 W/m 6,4 km/h (2 Bft) 95,74 %
22.10.2023 23:28 11,7 C 10,6 C 7,8 C 95 % 1012,9 hPa 0,0 l/m 0 min 0 min 0 W/m 0,0 km/h (0 Bft) 97,87 %
22.10.2023 23:30 11,7 C 10,6 C 7,8 C 95 % 1012,8 hPa 0,0 l/m 0 min 0 min 0 W/m 3,2 km/h (1 Bft) 95,74 %
22.10.2023 23:32 11,7 C 10,6 C 7,8 C 95 % 1012,8 hPa 0,0 l/m 0 min 0 min 0 W/m 3,2 km/h (1 Bft) 95,65 %
22.10.2023 23:34 11,7 C 10,6 C 7,8 C 95 % 1012,9 hPa 0,0 l/m 0 min 0 min 0 W/m 3,2 km/h (1 Bft) 93,62 %
22.10.2023 23:36 11,7 C 10,6 C 7,8 C 95 % 1012,9 hPa 0,0 l/m 0 min 0 min 0 W/m 3,2 km/h (1 Bft) 95,74 %
22.10.2023 23:38 11,6 C 10,6 C 7,8 C 95 % 1012,9 hPa 0,0 l/m 0 min 0 min 0 W/m 0,0 km/h (0 Bft) 93,62 %
22.10.2023 23:40 11,6 C 10,6 C 7,8 C 95 % 1012,9 hPa 0,0 l/m 0 min 0 min 0 W/m 0,0 km/h (0 Bft) 95,74 %
22.10.2023 23:42 11,6 C 10,6 C 7,8 C 95 % 1012,9 hPa 0,0 l/m 0 min 0 min 0 W/m 0,0 km/h (0 Bft) 93,62 %
22.10.2023 23:44 11,6 C 10,6 C 7,8 C 95 % 1012,9 hPa 0,0 l/m 0 min 0 min 0 W/m 3,2 km/h (1 Bft) 95,74 %
22.10.2023 23:46 11,6 C 10,6 C 7,8 C 95 % 1012,9 hPa 0,0 l/m 0 min 0 min 0 W/m 0,0 km/h (0 Bft) 91,30 %
22.10.2023 23:48 11,6 C 10,6 C 7,8 C 95 % 1012,9 hPa 0,0 l/m 0 min 0 min 0 W/m 0,0 km/h (0 Bft) 97,87 %
22.10.2023 23:50 11,6 C 10,6 C 7,8 C 95 % 1012,9 hPa 0,0 l/m 0 min 0 min 0 W/m 3,2 km/h (1 Bft) 97,87 %
22.10.2023 23:52 11,6 C 10,6 C 7,8 C 95 % 1012,9 hPa 0,0 l/m 0 min 0 min 0 W/m 3,2 km/h (1 Bft) 95,74 %
22.10.2023 23:54 11,6 C 10,6 C 7,8 C 95 % 1012,9 hPa 0,0 l/m 0 min 0 min 0 W/m 0,0 km/h (0 Bft) 97,83 %
22.10.2023 23:56 11,6 C 10,6 C 7,2 C 95 % 1012,9 hPa 0,0 l/m 0 min 0 min 0 W/m 3,2 km/h (1 Bft) 95,65 %
22.10.2023 23:58 11,6 C 10,6 C 7,2 C 95 % 1012,9 hPa 0,0 l/m 0 min 0 min 0 W/m 0,0 km/h (0 Bft) 97,87 %
_ Min-Zeit 23:38 22:58 23:56 01:24 00:00 - - - - 16:38 14:22
Minimum _ 11,6 C 10,6 C 7,2 C 77 % 998,6 hPa - - - - 0,0 km/h (0 Bft) 54,55 %
_ Max-Zeit 14:18 13:30 13:08 22:12 23:00 15:30 14:08 03:32 14:18 06:18 00:04
Maximum _ 15,5 C 15,6 C 11,1 C 95 % 1012,9 hPa 0,2 l/m 4 min 2 min 506 W/m 41,8 km/h
S-SW (6 Bft)
100,00 %
Durchschnitt _ 13,5 C 12,8 C 9,2 C 87 % 1006,4 hPa #0,2 l/m #40 min. #32 min. 102 W/m 13,2 km/h (3 Bft) 97,19 %
© 2023 W. Hausmann